CW3318 Weather Reports


Display with metric or nautical units.
time (UTC)temp
F
wind
direction
speed
MPH
gust
MPH
rain 1hr
in
rain 24hr
in
rain mn
in
humidity
%
barometer
mb
20260508170150 64 274 13.0 21.0 0.00 0.00 0.00 31 1012.6
20260508170045 64 280 14.0 19.0 0.00 0.00 0.00 32 1012.6
20260508165930 64 285 12.0 19.0 0.00 0.00 0.00 33 1012.6
20260508165826 65 287 10.0 20.0 0.00 0.00 0.00 34 1012.6
20260508165753 64 271 9.0 20.0 0.00 0.00 0.00 35 1012.6
20260508165631 64 264 9.0 20.0 0.00 0.00 0.00 35 1012.6
20260508165540 64 272 10.0 20.0 0.00 0.00 0.00 34 1012.6
20260508165505 64 273 11.0 20.0 0.00 0.00 0.00 34 1012.6
20260508165322 64 285 12.0 20.0 0.00 0.00 0.00 33 1012.6
20260508165221 64 294 12.0 20.0 0.00 0.00 0.00 34 1012.6
20260508165116 65 289 12.0 20.0 0.00 0.00 0.00 35 1012.7
20260508165022 64 260 10.0 20.0 0.00 0.00 0.00 36 1012.6
20260508164923 64 280 8.0 18.0 0.00 0.00 0.00 36 1012.7
20260508164850 64 329 9.0 18.0 0.00 0.00 0.00 35 1012.7
20260508164756 64 264 11.0 18.0 0.00 0.00 0.00 35 1012.7
20260508164634 64 255 11.0 18.0 0.00 0.00 0.00 36 1012.7
20260508164539 65 281 9.0 19.0 0.00 0.00 0.00 36 1012.7
20260508164435 65 270 11.0 19.0 0.00 0.00 0.00 36 1012.7
20260508164402 65 266 11.0 19.0 0.00 0.00 0.00 36 1012.7
20260508164221 65 287 8.0 19.0 0.00 0.00 0.00 37 1012.8
20260508164121 65 258 10.0 19.0 0.00 0.00 0.00 37 1012.8
20260508164027 65 271 11.0 19.0 0.00 0.00 0.00 37 1012.8
20260508163924 65 277 11.0 19.0 0.00 0.00 0.00 38 1012.8
20260508163829 65 260 12.0 19.0 0.00 0.00 0.00 38 1012.8
20260508163723 65 258 12.0 19.0 0.00 0.00 0.00 40 1012.9
20260508163630 65 275 11.0 19.0 0.00 0.00 0.00 39 1012.9
20260508163526 65 285 11.0 19.0 0.00 0.00 0.00 38 1012.8
20260508163434 65 263 12.0 19.0 0.00 0.00 0.00 38 1012.8
20260508163331 65 271 12.0 19.0 0.00 0.00 0.00 39 1012.8
20260508163236 65 275 12.0 19.0 0.00 0.00 0.00 39 1012.7
20260508163134 65 242 12.0 19.0 0.00 0.00 0.00 38 1012.8
20260508163038 65 270 12.0 19.0 0.00 0.00 0.00 38 1012.8
20260508162935 65 250 11.0 18.0 0.00 0.00 0.00 38 1012.8
20260508162902 65 254 11.0 18.0 0.00 0.00 0.00 38 1012.8
20260508162722 65 262 11.0 18.0 0.00 0.00 0.00 38 1012.8
20260508162647 65 263 11.0 18.0 0.00 0.00 0.00 40 1012.8
20260508162523 65 250 9.0 21.0 0.00 0.00 0.00 42 1012.9
20260508162418 65 291 9.0 21.0 0.00 0.00 0.00 42 1012.8
20260508162323 64 272 10.0 21.0 0.00 0.00 0.00 41 1012.8
20260508162220 64 232 10.0 21.0 0.00 0.00 0.00 42 1012.8
20260508162129 64 285 11.0 21.0 0.00 0.00 0.00 42 1012.8
20260508162026 64 250 11.0 21.0 0.00 0.00 0.00 42 1012.9
20260508161930 64 247 11.0 21.0 0.00 0.00 0.00 42 1012.9
20260508161828 64 239 13.0 21.0 0.00 0.00 0.00 42 1012.9
20260508161735 63 253 12.0 21.0 0.00 0.00 0.00 42 1012.9
20260508161634 63 260 11.0 17.0 0.00 0.00 0.00 41 1012.8
20260508161557 63 261 11.0 17.0 0.00 0.00 0.00 43 1012.9
20260508161442 63 262 11.0 17.0 0.00 0.00 0.00 43 1012.9
20260508161339 63 239 9.0 16.0 0.00 0.00 0.00 43 1012.9
20260508161229 63 256 8.0 16.0 0.00 0.00 0.00 44 1012.9
20260508161122 63 269 6.0 12.0 0.00 0.00 0.00 43 1012.8
20260508161029 63 333 7.0 12.0 0.00 0.00 0.00 43 1012.8
20260508160926 63 285 7.0 12.0 0.00 0.00 0.00 43 1012.8
20260508160853 62 240 6.0 9.0 0.00 0.00 0.00 44 1012.9
20260508160759 62 256 6.0 9.0 0.00 0.00 0.00 44 1012.8
20260508160636 62 258 5.0 9.0 0.00 0.00 0.00 44 1012.7
20260508160542 62 266 3.0 11.0 0.00 0.00 0.00 44 1012.7
20260508160441 62 252 2.0 11.0 0.00 0.00 0.00 44 1012.7
20260508160325 62 252 2.0 11.0 0.00 0.00 0.00 44 1012.7
20260508160221 62 252 3.0 11.0 0.00 0.00 0.00 44 1012.7
20260508160129 61 251 5.0 11.0 0.00 0.00 0.00 44 1012.7
20260508160022 61 250 6.0 11.0 0.00 0.00 0.00 44 1012.7
20260508155917 61 227 6.0 11.0 0.00 0.00 0.00 45 1012.7
20260508155823 61 240 6.0 11.0 0.00 0.00 0.00 45 1012.7
20260508155732 61 242 6.0 11.0 0.00 0.00 0.00 45 1012.7
20260508155630 60 262 4.0 7.0 0.00 0.00 0.00 45 1012.7
20260508155525 60 245 4.0 7.0 0.00 0.00 0.00 45 1012.7
20260508155432 60 244 3.0 7.0 0.00 0.00 0.00 45 1012.7
20260508155359 60 244 3.0 7.0 0.00 0.00 0.00 45 1012.7
20260508155216 59 193 3.0 7.0 0.00 0.00 0.00 45 1012.7
20260508155135 59 219 3.0 7.0 0.00 0.00 0.00 45 1012.7
20260508155025 59 219 3.0 7.0 0.00 0.00 0.00 45 1012.7
20260508154940 59 223 4.0 7.0 0.00 0.00 0.00 46 1012.7
20260508154846 59 227 4.0 7.0 0.00 0.00 0.00 47 1012.7
20260508154721 58 229 3.0 7.0 0.00 0.00 0.00 46 1012.7
20260508154629 58 255 2.0 4.0 0.00 0.00 0.00 46 1012.7
20260508154532 58 256 1.0 4.0 0.00 0.00 0.00 47 1012.6
20260508154429 57 256 0.0 4.0 0.00 0.00 0.00 47 1012.7
20260508154356 57 256 1.0 5.0 0.00 0.00 0.00 46 1012.7
20260508154236 57 256 2.0 7.0 0.00 0.00 0.00 46 1012.7
20260508154143 57 256 2.0 7.0 0.00 0.00 0.00 47 1012.7
20260508154039 56 258 2.0 7.0 0.00 0.00 0.00 48 1012.7
20260508153944 56 259 2.0 7.0 0.00 0.00 0.00 47 1012.7
20260508153820 56 259 2.0 7.0 0.00 0.00 0.00 47 1012.7
20260508153749 56 259 1.0 7.0 0.00 0.00 0.00 47 1012.7
20260508153624 56 259 2.0 7.0 0.00 0.00 0.00 47 1012.7
20260508153529 55 259 3.0 7.0 0.00 0.00 0.00 48 1012.7
20260508153456 55 259 3.0 7.0 0.00 0.00 0.00 49 1012.7
20260508153331 55 251 1.0 5.0 0.00 0.00 0.00 48 1012.6
20260508153237 55 251 1.0 5.0 0.00 0.00 0.00 48 1012.6
20260508153143 55 251 1.0 5.0 0.00 0.00 0.00 47 1012.6
20260508153019 54 251 2.0 5.0 0.00 0.00 0.00 48 1012.6
20260508152915 54 251 2.0 5.0 0.00 0.00 0.00 49 1012.6
20260508152842 54 251 3.0 5.0 0.00 0.00 0.00 49 1012.6
20260508152725 54 251 3.0 5.0 0.00 0.00 0.00 49 1012.6
20260508152620 54 251 3.0 5.0 0.00 0.00 0.00 50 1012.6
20260508152545 53 284 2.0 6.0 0.00 0.00 0.00 50 1012.6
20260508152420 53 284 1.0 6.0 0.00 0.00 0.00 50 1012.5
20260508152327 53 284 0.0 6.0 0.00 0.00 0.00 49 1012.5
20260508152225 53 284 0.0 6.0 0.00 0.00 0.00 50 1012.5
20260508152152 53 284 1.0 6.0 0.00 0.00 0.00 49 1012.5
20260508152028 53 284 3.0 6.0 0.00 0.00 0.00 49 1012.5
20260508151939 53 284 3.0 6.0 0.00 0.00 0.00 50 1012.6
20260508151905 52 284 2.0 6.0 0.00 0.00 0.00 50 1012.6
20260508151720 52 283 1.0 6.0 0.00 0.00 0.00 50 1012.5
20260508151624 52 283 1.0 6.0 0.00 0.00 0.00 50 1012.4
20260508151521 52 283 2.0 6.0 0.00 0.00 0.00 50 1012.5
20260508151418 52 283 3.0 6.0 0.00 0.00 0.00 50 1012.6
20260508151344 52 283 3.0 6.0 0.00 0.00 0.00 50 1012.5
20260508151233 51 283 1.0 3.0 0.00 0.00 0.00 51 1012.5
20260508151130 51 283 0.0 3.0 0.00 0.00 0.00 51 1012.5
20260508151023 51 283 0.0 3.0 0.00 0.00 0.00 51 1012.5
20260508150950 51 283 1.0 3.0 0.00 0.00 0.00 52 1012.5
20260508150835 51 283 1.0 3.0 0.00 0.00 0.00 52 1012.6
20260508150751 51 283 2.0 3.0 0.00 0.00 0.00 53 1012.6
20260508150637 51 283 2.0 3.0 0.00 0.00 0.00 53 1012.5
20260508150602 51 283 1.0 4.0 0.00 0.00 0.00 53 1012.4
20260508150335 50 285 0.0 4.0 0.00 0.00 0.00 53 1012.5
20260508150232 50 285 0.0 4.0 0.00 0.00 0.00 53 1012.4
20260508150136 50 285 0.0 4.0 0.00 0.00 0.00 53 1012.5
20260508150040 50 285 0.0 6.0 0.00 0.00 0.00 53 1012.5
20260508145917 50 285 1.0 6.0 0.00 0.00 0.00 52 1012.4
20260508145834 50 285 1.0 6.0 0.00 0.00 0.00 52 1012.4
20260508145741 50 285 2.0 6.0 0.00 0.00 0.00 52 1012.4
20260508145619 50 286 2.0 6.0 0.00 0.00 0.00 52 1012.4
20260508145546 50 286 2.0 6.0 0.00 0.00 0.00 52 1012.4
20260508145441 50 287 2.0 6.0 0.00 0.00 0.00 52 1012.4
20260508145318 50 287 4.0 6.0 0.00 0.00 0.00 52 1012.4
20260508145225 50 286 4.0 6.0 0.00 0.00 0.00 52 1012.4
20260508145120 50 240 2.0 8.0 0.00 0.00 0.00 52 1012.3
20260508145025 50 191 2.0 8.0 0.00 0.00 0.00 52 1012.3
20260508144927 50 187 3.0 8.0 0.00 0.00 0.00 52 1012.3
20260508144833 49 187 2.0 8.0 0.00 0.00 0.00 52 1012.3
20260508144728 49 188 1.0 8.0 0.00 0.00 0.00 52 1012.3
20260508144633 49 188 2.0 8.0 0.00 0.00 0.00 53 1012.4
20260508144529 49 188 4.0 8.0 0.00 0.00 0.00 53 1012.4
20260508144436 49 188 4.0 8.0 0.00 0.00 0.00 53 1012.3
20260508144317 49 142 2.0 8.0 0.00 0.00 0.00 53 1012.4
20260508144245 49 218 1.0 3.0 0.00 0.00 0.00 53 1012.4
20260508144118 49 219 1.0 4.0 0.00 0.00 0.00 53 1012.4
20260508144035 49 219 2.0 7.0 0.00 0.00 0.00 53 1012.4
20260508143939 49 219 2.0 7.0 0.00 0.00 0.00 53 1012.4
20260508143817 49 218 1.0 7.0 0.00 0.00 0.00 53 1012.3
20260508143734 49 218 1.0 7.0 0.00 0.00 0.00 53 1012.3
20260508143623 49 218 1.0 9.0 0.00 0.00 0.00 53 1012.3
20260508143517 49 218 2.0 9.0 0.00 0.00 0.00 53 1012.4
20260508143416 49 218 2.0 9.0 0.00 0.00 0.00 53 1012.4
20260508143323 49 218 3.0 9.0 0.00 0.00 0.00 53 1012.3
20260508143221 49 218 3.0 13.0 0.00 0.00 0.00 53 1012.3
20260508143148 48 218 3.0 13.0 0.00 0.00 0.00 53 1012.3
20260508143050 48 210 4.0 13.0 0.00 0.00 0.00 53 1012.3
20260508142828 48 169 5.0 13.0 0.00 0.00 0.00 54 1012.2
20260508142725 48 159 5.0 13.0 0.00 0.00 0.00 54 1012.2
20260508142631 48 157 7.0 13.0 0.00 0.00 0.00 54 1012.2
20260508142527 48 163 7.0 13.0 0.00 0.00 0.00 54 1012.2
20260508142454 48 160 6.0 13.0 0.00 0.00 0.00 54 1012.2
20260508142331 47 177 5.0 13.0 0.00 0.00 0.00 55 1012.2
20260508142240 47 175 4.0 11.0 0.00 0.00 0.00 55 1012.3
20260508142139 47 158 3.0 11.0 0.00 0.00 0.00 56 1012.2
20260508142044 47 192 3.0 11.0 0.00 0.00 0.00 56 1012.2
20260508141922 47 193 3.0 11.0 0.00 0.00 0.00 57 1012.3
20260508141818 47 194 3.0 11.0 0.00 0.00 0.00 57 1012.3
20260508141744 47 194 3.0 11.0 0.00 0.00 0.00 57 1012.3
20260508141630 47 194 5.0 11.0 0.00 0.00 0.00 57 1012.3
20260508141553 47 130 5.0 11.0 0.00 0.00 0.00 57 1012.2
20260508141448 47 148 3.0 10.0 0.00 0.00 0.00 57 1012.2
20260508141337 46 175 3.0 10.0 0.00 0.00 0.00 57 1012.2
20260508141244 46 175 3.0 10.0 0.00 0.00 0.00 57 1012.2
20260508141119 46 175 3.0 11.0 0.00 0.00 0.00 58 1012.2
20260508141037 46 175 5.0 11.0 0.00 0.00 0.00 58 1012.2
20260508140922 46 173 6.0 11.0 0.00 0.00 0.00 58 1012.2
20260508140827 46 155 5.0 11.0 0.00 0.00 0.00 59 1012.2
20260508140723 46 165 5.0 11.0 0.00 0.00 0.00 59 1012.2
20260508140618 46 149 6.0 11.0 0.00 0.00 0.00 59 1012.2
20260508140528 46 170 5.0 11.0 0.00 0.00 0.00 59 1012.2
20260508140426 46 138 5.0 11.0 0.00 0.00 0.00 59 1012.2
20260508140333 46 136 5.0 11.0 0.00 0.00 0.00 59 1012.2
20260508140230 45 152 6.0 9.0 0.00 0.00 0.00 59 1012.2
20260508140125 45 153 5.0 9.0 0.00 0.00 0.00 59 1012.1
20260508140030 45 131 4.0 9.0 0.00 0.00 0.00 59 1012.1
20260508135931 45 163 4.0 9.0 0.00 0.00 0.00 60 1012.2
20260508135838 45 163 5.0 9.0 0.00 0.00 0.00 60 1012.2
20260508135734 45 176 5.0 9.0 0.00 0.00 0.00 60 1012.2
20260508135616 45 179 5.0 9.0 0.00 0.00 0.00 60 1012.2
20260508135541 45 179 4.0 9.0 0.00 0.00 0.00 60 1012.2
20260508135418 45 137 3.0 9.0 0.00 0.00 0.00 60 1012.1
20260508135316 45 141 5.0 9.0 0.00 0.00 0.00 60 1012.1
20260508135227 45 129 5.0 9.0 0.00 0.00 0.00 60 1012.1
20260508135120 45 139 3.0 8.0 0.00 0.00 0.00 60 1012.1
20260508135024 45 136 2.0 8.0 0.00 0.00 0.00 60 1012.1
20260508134921 45 138 4.0 8.0 0.00 0.00 0.00 60 1012.1
20260508134827 45 136 4.0 8.0 0.00 0.00 0.00 60 1012.1
20260508134742 45 146 3.0 5.0 0.00 0.00 0.00 60 1012.1
20260508134625 45 146 3.0 5.0 0.00 0.00 0.00 60 1012.1
20260508134530 45 146 2.0 5.0 0.00 0.00 0.00 60 1012.0
20260508134445 44 154 1.0 5.0 0.00 0.00 0.00 60 1012.0
20260508134335 44 154 0.0 5.0 0.00 0.00 0.00 60 1012.0
20260508134232 44 154 0.0 7.0 0.00 0.00 0.00 60 1012.1
20260508134139 44 154 0.0 7.0 0.00 0.00 0.00 60 1012.1
20260508134015 44 154 0.0 7.0 0.00 0.00 0.00 60 1012.1
20260508133931 44 154 1.0 7.0 0.00 0.00 0.00 60 1012.1
20260508133855 44 154 2.0 7.0 0.00 0.00 0.00 60 1012.1
20260508133740 44 154 2.0 7.0 0.00 0.00 0.00 60 1012.0
20260508133618 44 125 3.0 7.0 0.00 0.00 0.00 60 1012.0
20260508133535 44 125 4.0 7.0 0.00 0.00 0.00 60 1012.0
20260508133439 44 123 4.0 7.0 0.00 0.00 0.00 60 1012.0
20260508133406 44 125 4.0 7.0 0.00 0.00 0.00 60 1012.1
20260508133221 44 210 3.0 5.0 0.00 0.00 0.00 60 1012.0
20260508133115 44 247 2.0 4.0 0.00 0.00 0.00 60 1012.0
20260508133022 44 248 1.0 3.0 0.00 0.00 0.00 60 1011.9
20260508132931 44 248 1.0 3.0 0.00 0.00 0.00 60 1011.9
20260508132824 44 248 0.0 3.0 0.00 0.00 0.00 60 1012.0
20260508132722 44 248 1.0 3.0 0.00 0.00 0.00 60 1011.9
20260508132630 44 248 1.0 3.0 0.00 0.00 0.00 60 1011.9
20260508132525 44 248 1.0 3.0 0.00 0.00 0.00 60 1012.0
20260508132431 44 248 0.0 1.0 0.00 0.00 0.00 60 1012.0
20260508132327 44 248 0.0 3.0 0.00 0.00 0.00 60 1012.0
20260508132255 44 248 0.0 3.0 0.00 0.00 0.00 60 1011.9
20260508132133 44 248 0.0 3.0 0.00 0.00 0.00 60 1011.9
20260508132037 44 248 0.0 3.0 0.00 0.00 0.00 59 1012.0
20260508131933 44 248 0.0 3.0 0.00 0.00 0.00 59 1012.0
20260508131831 44 248 0.0 3.0 0.00 0.00 0.00 59 1012.0
20260508131720 44 248 0.0 3.0 0.00 0.00 0.00 59 1012.0
20260508131618 44 248 0.0 3.0 0.00 0.00 0.00 59 1012.1
20260508131544 44 248 1.0 3.0 0.00 0.00 0.00 59 1012.1
20260508131422 44 253 0.0 3.0 0.00 0.00 0.00 59 1011.9
20260508131349 44 253 0.0 3.0 0.00 0.00 0.00 59 1011.9
20260508131246 44 253 0.0 3.0 0.00 0.00 0.00 59 1011.9
20260508131131 44 253 1.0 3.0 0.00 0.00 0.00 59 1011.9
20260508131025 45 253 1.0 3.0 0.00 0.00 0.00 59 1011.9
20260508130930 45 253 0.0 3.0 0.00 0.00 0.00 59 1011.9
20260508130831 45 253 1.0 4.0 0.00 0.00 0.00 59 1011.9
20260508130758 45 253 1.0 7.0 0.00 0.00 0.00 59 1011.9
20260508130635 45 253 1.0 7.0 0.00 0.00 0.00 59 1011.9
20260508130538 45 253 1.0 7.0 0.00 0.00 0.00 59 1011.8
20260508130432 45 253 1.0 7.0 0.00 0.00 0.00 59 1011.9
20260508130330 45 254 1.0 8.0 0.00 0.00 0.00 59 1011.9
20260508130238 45 254 1.0 8.0 0.00 0.00 0.00 59 1011.8
20260508130137 45 254 2.0 8.0 0.00 0.00 0.00 59 1011.9
20260508130022 45 255 3.0 8.0 0.00 0.00 0.00 59 1012.0
20260508125919 45 255 4.0 8.0 0.00 0.00 0.00 59 1011.9
20260508125824 45 173 3.0 8.0 0.00 0.00 0.00 59 1011.9
20260508125720 45 148 4.0 8.0 0.00 0.00 0.00 59 1011.8
20260508125629 45 148 5.0 8.0 0.00 0.00 0.00 59 1011.8
20260508125524 45 143 5.0 8.0 0.00 0.00 0.00 59 1011.7
20260508125454 45 140 3.0 8.0 0.00 0.00 0.00 58 1011.7
20260508125330 45 163 1.0 5.0 0.00 0.00 0.00 58 1011.7
20260508125215 45 163 0.0 5.0 0.00 0.00 0.00 58 1011.7
20260508125135 45 163 1.0 5.0 0.00 0.00 0.00 58 1011.7
20260508125038 45 163 2.0 5.0 0.00 0.00 0.00 58 1011.8
20260508124935 45 163 1.0 9.0 0.00 0.00 0.00 58 1011.7
20260508124819 45 163 0.0 9.0 0.00 0.00 0.00 58 1011.7
20260508124722 45 163 0.0 9.0 0.00 0.00 0.00 58 1011.7
20260508124616 45 163 1.0 9.0 0.00 0.00 0.00 58 1011.7
20260508124523 45 163 1.0 9.0 0.00 0.00 0.00 58 1011.7
20260508124419 45 163 2.0 9.0 0.00 0.00 0.00 58 1011.7
20260508124325 45 163 3.0 9.0 0.00 0.00 0.00 58 1011.7
20260508124222 45 163 4.0 9.0 0.00 0.00 0.00 58 1011.6
20260508124129 45 163 4.0 9.0 0.00 0.00 0.00 58 1011.6
20260508124028 45 163 5.0 9.0 0.00 0.00 0.00 58 1011.6
20260508123934 45 159 6.0 8.0 0.00 0.00 0.00 58 1011.6
20260508123902 45 163 4.0 8.0 0.00 0.00 0.00 57 1011.6
20260508123737 45 169 3.0 8.0 0.00 0.00 0.00 57 1011.6
20260508123705 45 172 3.0 8.0 0.00 0.00 0.00 57 1011.6
20260508123540 45 173 4.0 8.0 0.00 0.00 0.00 57 1011.5
20260508123444 45 172 4.0 8.0 0.00 0.00 0.00 57 1011.6
20260508123320 45 173 5.0 8.0 0.00 0.00 0.00 57 1011.5
20260508123249 45 175 5.0 8.0 0.00 0.00 0.00 57 1011.5
20260508123125 45 151 6.0 8.0 0.00 0.00 0.00 57 1011.6
20260508123031 45 162 5.0 8.0 0.00 0.00 0.00 57 1011.6
20260508122958 45 175 4.0 8.0 0.00 0.00 0.00 56 1011.6
20260508122855 45 184 3.0 6.0 0.00 0.00 0.00 56 1011.6
20260508122742 45 163 1.0 6.0 0.00 0.00 0.00 56 1011.5
20260508122616 45 163 1.0 6.0 0.00 0.00 0.00 56 1011.5
20260508122522 45 162 1.0 6.0 0.00 0.00 0.00 56 1011.4
20260508122420 45 161 2.0 6.0 0.00 0.00 0.00 56 1011.4
20260508122318 45 161 3.0 5.0 0.00 0.00 0.00 55 1011.4
20260508122225 45 159 2.0 6.0 0.00 0.00 0.00 55 1011.4
20260508122121 45 158 1.0 6.0 0.00 0.00 0.00 55 1011.4
20260508122027 45 158 1.0 6.0 0.00 0.00 0.00 55 1011.4
20260508121925 45 158 0.0 6.0 0.00 0.00 0.00 55 1011.4
20260508121831 45 158 1.0 6.0 0.00 0.00 0.00 55 1011.4
20260508121731 45 158 2.0 6.0 0.00 0.00 0.00 55 1011.4
20260508121658 45 159 3.0 6.0 0.00 0.00 0.00 55 1011.3
20260508121540 45 158 3.0 6.0 0.00 0.00 0.00 55 1011.4
20260508121415 45 158 3.0 6.0 0.00 0.00 0.00 55 1011.3
20260508121330 45 158 3.0 5.0 0.00 0.00 0.00 55 1011.3
20260508121237 45 157 1.0 4.0 0.00 0.00 0.00 55 1011.4
20260508121136 46 157 0.0 5.0 0.00 0.00 0.00 55 1011.4
20260508121023 46 157 1.0 5.0 0.00 0.00 0.00 55 1011.4
20260508120919 46 157 1.0 5.0 0.00 0.00 0.00 55 1011.4
20260508120824 46 156 1.0 5.0 0.00 0.00 0.00 55 1011.4
20260508120751 46 156 1.0 5.0 0.00 0.00 0.00 55 1011.4
20260508120624 46 156 2.0 5.0 0.00 0.00 0.00 55 1011.5
20260508120530 46 156 2.0 5.0 0.00 0.00 0.00 55 1011.5
20260508120427 46 156 3.0 5.0 0.00 0.00 0.00 55 1011.4
20260508120335 46 156 2.0 5.0 0.00 0.00 0.00 55 1011.4
20260508120253 46 156 2.0 5.0 0.00 0.00 0.00 55 1011.5
20260508120139 46 155 2.0 8.0 0.00 0.00 0.00 55 1011.4
20260508120044 46 155 2.0 8.0 0.00 0.00 0.00 55 1011.4
20260508115920 46 155 2.0 8.0 0.00 0.00 0.00 55 1011.4
20260508115816 46 155 3.0 8.0 0.00 0.00 0.00 55 1011.4
20260508115741 46 155 2.0 8.0 0.00 0.00 0.00 55 1011.4
20260508115640 46 156 2.0 8.0 0.00 0.00 0.00 55 1011.5
20260508115605 46 152 3.0 8.0 0.00 0.00 0.00 55 1011.5
20260508115444 46 152 4.0 8.0 0.00 0.00 0.00 55 1011.4
20260508115329 46 152 5.0 8.0 0.00 0.00 0.00 55 1011.4
20260508115247 46 183 4.0 5.0 0.00 0.00 0.00 55 1011.4
20260508115133 46 184 3.0 5.0 0.00 0.00 0.00 55 1011.4
20260508115058 46 184 4.0 5.0 0.00 0.00 0.00 55 1011.4
20260508114933 46 184 3.0 5.0 0.00 0.00 0.00 55 1011.4
20260508114839 46 185 3.0 4.0 0.00 0.00 0.00 55 1011.4
20260508114718 46 185 2.0 4.0 0.00 0.00 0.00 55 1011.4
20260508114617 46 185 2.0 4.0 0.00 0.00 0.00 55 1011.4
20260508114524 46 185 3.0 4.0 0.00 0.00 0.00 55 1011.4
20260508114420 46 185 3.0 4.0 0.00 0.00 0.00 55 1011.4
20260508114327 46 188 2.0 4.0 0.00 0.00 0.00 55 1011.4
20260508114224 47 188 2.0 4.0 0.00 0.00 0.00 55 1011.4
20260508114119 47 188 2.0 4.0 0.00 0.00 0.00 55 1011.4
20260508114030 47 188 2.0 4.0 0.00 0.00 0.00 55 1011.4
20260508113927 47 188 2.0 4.0 0.00 0.00 0.00 54 1011.4
20260508113830 47 188 2.0 4.0 0.00 0.00 0.00 54 1011.3
20260508113729 47 188 2.0 4.0 0.00 0.00 0.00 54 1011.3
20260508113623 47 188 2.0 4.0 0.00 0.00 0.00 54 1011.4
20260508113530 47 188 2.0 4.0 0.00 0.00 0.00 53 1011.4
20260508113428 47 188 2.0 4.0 0.00 0.00 0.00 53 1011.4
20260508113338 47 188 2.0 4.0 0.00 0.00 0.00 53 1011.4
20260508113255 47 188 2.0 4.0 0.00 0.00 0.00 53 1011.4
20260508113142 47 188 2.0 4.0 0.00 0.00 0.00 53 1011.4
20260508113016 47 188 3.0 4.0 0.00 0.00 0.00 53 1011.4
20260508112942 47 188 3.0 4.0 0.00 0.00 0.00 53 1011.4
20260508112819 47 188 2.0 4.0 0.00 0.00 0.00 53 1011.4
20260508112719 47 188 2.0 4.0 0.00 0.00 0.00 53 1011.4
20260508112628 47 188 2.0 4.0 0.00 0.00 0.00 52 1011.4
20260508112524 47 188 2.0 4.0 0.00 0.00 0.00 52 1011.3
20260508112422 48 188 2.0 4.0 0.00 0.00 0.00 52 1011.3
20260508112327 48 188 3.0 4.0 0.00 0.00 0.00 52 1011.3
20260508112230 48 188 2.0 3.0 0.00 0.00 0.00 52 1011.3
20260508112129 48 188 2.0 2.0 0.00 0.00 0.00 51 1011.3
20260508112028 48 188 1.0 2.0 0.00 0.00 0.00 51 1011.3
20260508111934 48 188 1.0 2.0 0.00 0.00 0.00 51 1011.3
20260508111832 48 188 0.0 2.0 0.00 0.00 0.00 51 1011.3
20260508111737 48 188 0.0 2.0 0.00 0.00 0.00 51 1011.3
20260508111636 48 188 0.0 2.0 0.00 0.00 0.00 51 1011.3
20260508111532 48 188 0.0 2.0 0.00 0.00 0.00 51 1011.3
20260508111422 48 188 1.0 4.0 0.00 0.00 0.00 51 1011.2
20260508111320 48 188 1.0 4.0 0.00 0.00 0.00 51 1011.2
20260508111219 48 188 2.0 4.0 0.00 0.00 0.00 50 1011.2
20260508111121 49 188 2.0 4.0 0.00 0.00 0.00 50 1011.2
20260508111047 49 188 1.0 4.0 0.00 0.00 0.00 50 1011.2
20260508110931 49 188 1.0 4.0 0.00 0.00 0.00 50 1011.2
20260508110848 49 188 0.0 4.0 0.00 0.00 0.00 50 1011.2
20260508110733 49 188 1.0 4.0 0.00 0.00 0.00 50 1011.2
20260508110700 49 188 2.0 5.0 0.00 0.00 0.00 50 1011.2
20260508110538 49 188 1.0 5.0 0.00 0.00 0.00 50 1011.2
20260508110503 49 188 2.0 5.0 0.00 0.00 0.00 50 1011.2
20260508110318 49 188 2.0 5.0 0.00 0.00 0.00 50 1011.1
20260508110244 49 188 2.0 5.0 0.00 0.00 0.00 50 1011.1
20260508110119 49 188 2.0 5.0 0.00 0.00 0.00 50 1011.1
20260508110036 49 188 3.0 5.0 0.00 0.00 0.00 50 1011.2
20260508105941 49 188 3.0 6.0 0.00 0.00 0.00 50 1011.1
20260508105827 49 188 3.0 6.0 0.00 0.00 0.00 50 1011.1
20260508105748 49 189 3.0 6.0 0.00 0.00 0.00 50 1011.2
20260508105653 49 189 3.0 6.0 0.00 0.00 0.00 50 1011.2
20260508105536 49 189 3.0 6.0 0.00 0.00 0.00 49 1011.2
20260508105433 49 189 3.0 6.0 0.00 0.00 0.00 49 1011.1
20260508105357 50 189 3.0 6.0 0.00 0.00 0.00 49 1011.2
20260508105232 50 189 4.0 6.0 0.00 0.00 0.00 49 1011.2
20260508105125 50 189 3.0 6.0 0.00 0.00 0.00 49 1011.2
20260508105051 50 202 2.0 4.0 0.00 0.00 0.00 49 1011.2
20260508104928 50 202 1.0 4.0 0.00 0.00 0.00 48 1011.2
20260508104839 50 202 0.0 4.0 0.00 0.00 0.00 48 1011.2
20260508104745 50 202 1.0 4.0 0.00 0.00 0.00 48 1011.2
20260508104641 50 202 2.0 4.0 0.00 0.00 0.00 48 1011.2
20260508104515 51 202 2.0 4.0 0.00 0.00 0.00 48 1011.2
20260508104422 51 204 1.0 3.0 0.00 0.00 0.00 48 1011.2
20260508104320 51 204 0.0 2.0 0.00 0.00 0.00 48 1011.2
20260508104227 51 204 0.0 2.0 0.00 0.00 0.00 48 1011.2
20260508104128 51 204 1.0 2.0 0.00 0.00 0.00 47 1011.2
20260508104033 51 204 1.0 2.0 0.00 0.00 0.00 47 1011.2
20260508103930 51 204 1.0 2.0 0.00 0.00 0.00 47 1011.2
20260508103828 51 204 0.0 1.0 0.00 0.00 0.00 47 1011.2
20260508103735 51 204 0.0 1.0 0.00 0.00 0.00 47 1011.1
20260508103634 51 204 0.0 1.0 0.00 0.00 0.00 47 1011.2
20260508103538 51 204 0.0 2.0 0.00 0.00 0.00 47 1011.2
20260508103420 51 204 0.0 2.0 0.00 0.00 0.00 47 1011.1
20260508103318 51 204 0.0 2.0 0.00 0.00 0.00 47 1011.1
20260508103226 51 204 0.0 2.0 0.00 0.00 0.00 47 1011.1
20260508103142 51 204 0.0 2.0 0.00 0.00 0.00 47 1011.1
20260508103028 51 204 0.0 2.0 0.00 0.00 0.00 47 1011.1
20260508102924 51 204 0.0 2.0 0.00 0.00 0.00 47 1011.1
20260508102851 52 204 0.0 3.0 0.00 0.00 0.00 47 1011.1
20260508102741 52 204 0.0 3.0 0.00 0.00 0.00 47 1011.1
20260508102615 52 204 0.0 3.0 0.00 0.00 0.00 47 1011.1
20260508102541 52 204 0.0 3.0 0.00 0.00 0.00 47 1011.1
20260508102418 52 204 0.0 3.0 0.00 0.00 0.00 47 1011.0
20260508102345 52 204 0.0 4.0 0.00 0.00 0.00 47 1011.0
20260508102220 52 204 0.0 4.0 0.00 0.00 0.00 47 1011.0
20260508102129 52 204 0.0 4.0 0.00 0.00 0.00 46 1011.0
20260508102027 52 204 1.0 4.0 0.00 0.00 0.00 46 1011.1
20260508101954 52 204 2.0 4.0 0.00 0.00 0.00 46 1011.1
20260508101830 52 204 2.0 4.0 0.00 0.00 0.00 46 1011.1
20260508101735 52 204 2.0 4.0 0.00 0.00 0.00 46 1011.0
20260508101634 52 204 2.0 4.0 0.00 0.00 0.00 46 1011.1
20260508101530 52 204 2.0 4.0 0.00 0.00 0.00 46 1011.1
20260508101434 52 204 3.0 4.0 0.00 0.00 0.00 46 1011.0
20260508101316 52 204 2.0 4.0 0.00 0.00 0.00 46 1011.0
20260508101218 52 204 3.0 4.0 0.00 0.00 0.00 46 1011.0
20260508101136 52 204 3.0 4.0 0.00 0.00 0.00 46 1011.0
20260508101031 52 204 3.0 4.0 0.00 0.00 0.00 46 1011.0
20260508100929 52 204 3.0 4.0 0.00 0.00 0.00 46 1011.0
20260508100836 52 204 3.0 3.0 0.00 0.00 0.00 46 1011.0
20260508100755 52 204 2.0 3.0 0.00 0.00 0.00 46 1011.0
20260508100638 52 204 3.0 3.0 0.00 0.00 0.00 46 1011.0
20260508100518 52 204 3.0 3.0 0.00 0.00 0.00 46 1011.0
20260508100425 52 204 2.0 3.0 0.00 0.00 0.00 46 1011.0
20260508100320 52 204 2.0 3.0 0.00 0.00 0.00 46 1011.0
20260508100220 52 204 2.0 3.0 0.00 0.00 0.00 46 1011.0
20260508100125 52 204 2.0 3.0 0.00 0.00 0.00 46 1011.0
20260508100029 52 204 1.0 3.0 0.00 0.00 0.00 46 1011.0
20260508095923 52 204 0.0 3.0 0.00 0.00 0.00 46 1011.0
20260508095825 52 204 0.0 3.0 0.00 0.00 0.00 46 1011.0
20260508095750 52 204 0.0 3.0 0.00 0.00 0.00 46 1011.0
20260508095637 52 204 0.0 4.0 0.00 0.00 0.00 46 1011.0
20260508095531 52 204 1.0 4.0 0.00 0.00 0.00 46 1010.9
20260508095428 52 204 2.0 4.0 0.00 0.00 0.00 46 1010.9
20260508095335 52 204 2.0 4.0 0.00 0.00 0.00 46 1011.0
20260508095217 53 204 2.0 4.0 0.00 0.00 0.00 46 1011.0
20260508095143 53 204 2.0 4.0 0.00 0.00 0.00 46 1011.0
20260508095018 53 204 2.0 4.0 0.00 0.00 0.00 46 1011.0
20260508094915 53 204 3.0 4.0 0.00 0.00 0.00 45 1011.0
20260508094819 53 204 3.0 4.0 0.00 0.00 0.00 45 1011.0
20260508094717 53 204 3.0 4.0 0.00 0.00 0.00 45 1011.0
20260508094622 53 204 2.0 4.0 0.00 0.00 0.00 45 1011.0
20260508094549 53 204 1.0 4.0 0.00 0.00 0.00 45 1011.0
20260508094428 53 204 0.0 0.0 0.00 0.00 0.00 45 1011.0
20260508094355 54 204 0.0 0.0 0.00 0.00 0.00 45 1011.0
20260508094232 54 204 0.0 1.0 0.00 0.00 0.00 45 1011.0
20260508094141 54 204 0.0 2.0 0.00 0.00 0.00 45 1010.9
20260508094016 54 204 0.0 2.0 0.00 0.00 0.00 45 1011.0
20260508093934 54 204 0.0 3.0 0.00 0.00 0.00 45 1011.0
20260508093824 54 204 0.0 4.0 0.00 0.00 0.00 44 1011.0
20260508093741 54 204 0.0 4.0 0.00 0.00 0.00 44 1010.9
20260508093625 54 204 0.0 4.0 0.00 0.00 0.00 44 1010.9
20260508093521 54 204 0.0 4.0 0.00 0.00 0.00 44 1010.9
20260508093447 54 204 1.0 4.0 0.00 0.00 0.00 44 1010.9
20260508093353 54 204 1.0 4.0 0.00 0.00 0.00 44 1010.9
20260508093231 54 204 2.0 4.0 0.00 0.00 0.00 44 1010.9
20260508093125 54 204 2.0 4.0 0.00 0.00 0.00 44 1010.9
20260508093016 54 204 2.0 4.0 0.00 0.00 0.00 44 1010.9
20260508092931 55 204 2.0 4.0 0.00 0.00 0.00 44 1010.9
20260508092837 55 204 2.0 4.0 0.00 0.00 0.00 44 1010.9
20260508092715 55 204 3.0 4.0 0.00 0.00 0.00 44 1010.8
20260508092644 55 204 3.0 4.0 0.00 0.00 0.00 44 1010.8
20260508092537 55 204 3.0 4.0 0.00 0.00 0.00 44 1010.9
20260508092443 55 204 3.0 4.0 0.00 0.00 0.00 43 1010.8
20260508092324 55 204 2.0 4.0 0.00 0.00 0.00 43 1010.8
20260508092229 55 204 1.0 4.0 0.00 0.00 0.00 43 1010.8
20260508092129 55 204 1.0 4.0 0.00 0.00 0.00 43 1010.9
20260508092032 55 204 0.0 4.0 0.00 0.00 0.00 43 1010.9
20260508091928 55 204 1.0 4.0 0.00 0.00 0.00 43 1010.8
20260508091835 55 204 2.0 4.0 0.00 0.00 0.00 43 1010.8
20260508091733 56 204 2.0 4.0 0.00 0.00 0.00 43 1010.8
20260508091635 56 204 2.0 4.0 0.00 0.00 0.00 43 1010.8
20260508091517 56 204 3.0 4.0 0.00 0.00 0.00 43 1010.8
20260508091415 56 204 3.0 5.0 0.00 0.00 0.00 42 1010.9
20260508091321 56 204 3.0 5.0 0.00 0.00 0.00 42 1010.9
20260508091217 56 204 3.0 5.0 0.00 0.00 0.00 42 1010.9
20260508091145 56 204 3.0 5.0 0.00 0.00 0.00 42 1010.9
20260508091018 56 204 3.0 5.0 0.00 0.00 0.00 42 1010.8
20260508090949 56 204 3.0 5.0 0.00 0.00 0.00 41 1010.8
20260508090826 56 204 3.0 5.0 0.00 0.00 0.00 41 1010.8
20260508090723 56 204 3.0 5.0 0.00 0.00 0.00 41 1010.8
20260508090649 57 204 3.0 5.0 0.00 0.00 0.00 41 1010.8
20260508090532 57 204 3.0 5.0 0.00 0.00 0.00 41 1010.8
20260508090450 57 206 2.0 5.0 0.00 0.00 0.00 40 1010.8
20260508090335 57 206 2.0 5.0 0.00 0.00 0.00 40 1010.8
20260508090303 57 206 2.0 5.0 0.00 0.00 0.00 40 1010.8
20260508090119 57 206 3.0 5.0 0.00 0.00 0.00 40 1010.8
20260508090017 57 206 3.0 5.0 0.00 0.00 0.00 40 1010.8
20260508085944 57 206 3.0 5.0 0.00 0.00 0.00 40 1010.8
20260508085819 57 208 3.0 5.0 0.00 0.00 0.00 39 1010.8
20260508085723 58 209 3.0 7.0 0.00 0.00 0.00 39 1010.8
20260508085618 58 258 1.0 7.0 0.00 0.00 0.00 39 1010.8
20260508085523 58 258 1.0 7.0 0.00 0.00 0.00 38 1010.8
20260508085429 58 258 1.0 7.0 0.00 0.00 0.00 39 1010.8
20260508085350 58 258 1.0 7.0 0.00 0.00 0.00 38 1010.8
20260508085235 58 258 2.0 7.0 0.00 0.00 0.00 38 1010.7
20260508085133 58 258 3.0 7.0 0.00 0.00 0.00 38 1010.8
20260508085037 58 258 3.0 7.0 0.00 0.00 0.00 38 1010.8
20260508084934 58 258 4.0 7.0 0.00 0.00 0.00 38 1010.8
20260508084837 58 258 4.0 7.0 0.00 0.00 0.00 37 1010.8
20260508084806 58 245 4.0 6.0 0.00 0.00 0.00 37 1010.8
20260508084640 59 243 4.0 6.0 0.00 0.00 0.00 37 1010.8
20260508084520 59 242 4.0 6.0 0.00 0.00 0.00 37 1010.8
20260508084447 59 242 4.0 6.0 0.00 0.00 0.00 37 1010.8
20260508084220 59 210 4.0 5.0 0.00 0.00 0.00 37 1010.8
20260508084125 59 207 3.0 5.0 0.00 0.00 0.00 37 1010.8
20260508084023 59 206 2.0 6.0 0.00 0.00 0.00 36 1010.8
20260508083919 59 200 2.0 6.0 0.00 0.00 0.00 36 1010.8
20260508083845 59 200 3.0 7.0 0.00 0.00 0.00 36 1010.8
20260508083734 59 200 3.0 8.0 0.00 0.00 0.00 35 1010.8
20260508083651 60 200 3.0 8.0 0.00 0.00 0.00 35 1010.8
20260508083535 60 200 3.0 10.0 0.00 0.00 0.00 34 1010.9
20260508083433 60 200 2.0 10.0 0.00 0.00 0.00 34 1010.8
20260508083338 60 200 2.0 10.0 0.00 0.00 0.00 34 1010.8
20260508083255 60 201 3.0 13.0 0.00 0.00 0.00 34 1010.8
20260508083142 60 201 4.0 13.0 0.00 0.00 0.00 34 1010.8
20260508083022 60 198 5.0 13.0 0.00 0.00 0.00 33 1010.9
20260508082919 60 232 6.0 23.0 0.00 0.00 0.00 32 1010.8
20260508082826 60 219 6.0 23.0 0.00 0.00 0.00 31 1010.8
20260508082722 60 251 7.0 23.0 0.00 0.00 0.00 31 1010.8
20260508082632 60 250 7.0 23.0 0.00 0.00 0.00 31 1010.8
20260508082546 60 250 9.0 23.0 0.00 0.00 0.00 30 1010.8
20260508082432 60 250 9.0 23.0 0.00 0.00 0.00 30 1010.9
20260508082334 60 244 8.0 23.0 0.00 0.00 0.00 29 1010.8
20260508082243 60 262 8.0 23.0 0.00 0.00 0.00 28 1010.8
20260508082118 60 267 12.0 23.0 0.00 0.00 0.00 28 1010.9
20260508082015 60 239 11.0 23.0 0.00 0.00 0.00 28 1010.8
20260508081942 60 244 11.0 19.0 0.00 0.00 0.00 28 1010.8
20260508081820 60 264 9.0 19.0 0.00 0.00 0.00 30 1010.8
20260508081722 60 284 8.0 19.0 0.00 0.00 0.00 29 1010.8
20260508081650 60 273 7.0 19.0 0.00 0.00 0.00 29 1010.8
20260508081523 60 265 9.0 19.0 0.00 0.00 0.00 29 1010.7
20260508081430 60 267 13.0 19.0 0.00 0.00 0.00 28 1010.7
20260508081327 60 267 14.0 19.0 0.00 0.00 0.00 28 1010.8
20260508081225 60 271 13.0 19.0 0.00 0.00 0.00 29 1010.8
20260508081120 60 275 13.0 19.0 0.00 0.00 0.00 30 1010.8
20260508081030 60 280 11.0 19.0 0.00 0.00 0.00 31 1010.8
20260508080927 60 244 9.0 16.0 0.00 0.00 0.00 31 1010.8
20260508080823 59 281 10.0 16.0 0.00 0.00 0.00 31 1010.8
20260508080741 59 280 11.0 16.0 0.00 0.00 0.00 31 1010.8
20260508080625 59 287 10.0 17.0 0.00 0.00 0.00 31 1010.8
20260508080521 59 275 10.0 17.0 0.00 0.00 0.00 30 1010.8
20260508080419 59 294 11.0 17.0 0.00 0.00 0.00 30 1010.8
20260508080329 59 287 11.0 17.0 0.00 0.00 0.00 31 1010.8
20260508080227 59 285 10.0 19.0 0.00 0.00 0.00 32 1010.8
20260508080154 59 288 10.0 19.0 0.00 0.00 0.00 31 1010.8
20260508080019 59 283 12.0 19.0 0.00 0.00 0.00 31 1010.7
20260508075925 59 283 12.0 19.0 0.00 0.00 0.00 32 1010.7
20260508075821 59 276 11.0 19.0 0.00 0.00 0.00 33 1010.8
20260508075748 59 300 11.0 19.0 0.00 0.00 0.00 33 1010.8
20260508075629 59 277 12.0 19.0 0.00 0.00 0.00 33 1010.7
20260508075534 59 277 12.0 19.0 0.00 0.00 0.00 33 1010.8
20260508075432 58 306 12.0 18.0 0.00 0.00 0.00 34 1010.8
20260508075336 58 295 10.0 17.0 0.00 0.00 0.00 35 1010.8
20260508075233 58 258 8.0 17.0 0.00 0.00 0.00 35 1010.7
20260508075138 58 291 9.0 17.0 0.00 0.00 0.00 35 1010.8
20260508075034 58 297 10.0 17.0 0.00 0.00 0.00 35 1010.8
20260508074943 58 296 11.0 17.0 0.00 0.00 0.00 35 1010.8
20260508074820 58 285 11.0 17.0 0.00 0.00 0.00 36 1010.8
20260508074720 58 258 10.0 16.0 0.00 0.00 0.00 36 1010.8
20260508074624 58 263 9.0 16.0 0.00 0.00 0.00 36 1010.8
20260508074541 58 270 9.0 14.0 0.00 0.00 0.00 36 1010.8
20260508074447 58 292 9.0 14.0 0.00 0.00 0.00 35 1010.8
20260508074331 58 263 10.0 14.0 0.00 0.00 0.00 35 1010.8
20260508074228 58 279 10.0 14.0 0.00 0.00 0.00 35 1010.8
20260508074140 58 268 10.0 14.0 0.00 0.00 0.00 34 1010.8
20260508074106 58 271 8.0 14.0 0.00 0.00 0.00 34 1010.8
20260508073921 58 269 8.0 10.0 0.00 0.00 0.00 34 1010.8
20260508073818 58 277 8.0 10.0 0.00 0.00 0.00 33 1010.9
20260508073745 58 271 7.0 10.0 0.00 0.00 0.00 33 1010.9
20260508073620 58 269 7.0 11.0 0.00 0.00 0.00 33 1010.9
20260508073522 58 270 6.0 11.0 0.00 0.00 0.00 33 1010.9
20260508073427 59 269 6.0 11.0 0.00 0.00 0.00 33 1010.9
20260508073322 59 269 6.0 11.0 0.00 0.00 0.00 32 1010.9
20260508073248 59 290 7.0 11.0 0.00 0.00 0.00 32 1010.9
20260508073154 59 283 6.0 11.0 0.00 0.00 0.00 32 1010.9
20260508073028 59 282 6.0 11.0 0.00 0.00 0.00 32 1010.9
20260508072934 59 278 7.0 12.0 0.00 0.00 0.00 32 1010.9
20260508072832 59 284 7.0 12.0 0.00 0.00 0.00 32 1010.9
20260508072745 59 275 7.0 12.0 0.00 0.00 0.00 32 1010.9
20260508072620 59 291 7.0 14.0 0.00 0.00 0.00 32 1010.9
20260508072518 59 279 6.0 14.0 0.00 0.00 0.00 32 1010.9
20260508072416 59 278 6.0 14.0 0.00 0.00 0.00 33 1010.8
20260508072343 59 287 7.0 14.0 0.00 0.00 0.00 32 1010.9
20260508072229 59 283 8.0 14.0 0.00 0.00 0.00 32 1010.9
20260508072129 59 273 9.0 14.0 0.00 0.00 0.00 33 1010.8
20260508072037 59 279 9.0 14.0 0.00 0.00 0.00 32 1010.8
20260508071932 59 285 9.0 14.0 0.00 0.00 0.00 33 1010.8
20260508071829 59 269 8.0 14.0 0.00 0.00 0.00 33 1010.8
20260508071736 59 290 8.0 14.0 0.00 0.00 0.00 34 1010.8
20260508071634 59 305 9.0 14.0 0.00 0.00 0.00 34 1010.8
20260508071539 59 275 9.0 14.0 0.00 0.00 0.00 34 1010.8
20260508071436 59 279 8.0 14.0 0.00 0.00 0.00 34 1010.8
20260508071340 59 273 9.0 14.0 0.00 0.00 0.00 34 1010.8
20260508071217 59 289 11.0 16.0 0.00 0.00 0.00 34 1010.9
20260508071143 59 286 11.0 16.0 0.00 0.00 0.00 34 1010.8
20260508071038 59 271 10.0 18.0 0.00 0.00 0.00 34 1010.8
20260508070941 60 275 9.0 18.0 0.00 0.00 0.00 35 1010.8
20260508070818 60 287 9.0 18.0 0.00 0.00 0.00 35 1010.8
20260508070744 60 305 9.0 18.0 0.00 0.00 0.00 35 1010.8
20260508070657 60 272 8.0 18.0 0.00 0.00 0.00 35 1010.8
20260508070538 60 280 9.0 18.0 0.00 0.00 0.00 35 1010.8
20260508070443 60 261 11.0 18.0 0.00 0.00 0.00 35 1010.8
20260508070321 60 291 12.0 18.0 0.00 0.00 0.00 35 1010.8
20260508070249 60 280 12.0 18.0 0.00 0.00 0.00 35 1010.8
20260508070123 60 267 12.0 17.0 0.00 0.00 0.00 35 1010.8
20260508070020 60 278 10.0 17.0 0.00 0.00 0.00 34 1010.7
20260508065930 60 291 10.0 17.0 0.00 0.00 0.00 35 1010.7
20260508065827 60 285 11.0 17.0 0.00 0.00 0.00 35 1010.7
20260508065733 60 280 10.0 17.0 0.00 0.00 0.00 35 1010.7
20260508065631 60 280 9.0 16.0 0.00 0.00 0.00 35 1010.8
20260508065536 60 300 11.0 16.0 0.00 0.00 0.00 35 1010.7
20260508065432 60 289 10.0 16.0 0.00 0.00 0.00 35 1010.7
20260508065339 60 291 9.0 16.0 0.00 0.00 0.00 35 1010.7
20260508065242 60 284 8.0 16.0 0.00 0.00 0.00 35 1010.7
20260508065122 60 291 10.0 16.0 0.00 0.00 0.00 35 1010.7
20260508065018 60 315 9.0 16.0 0.00 0.00 0.00 35 1010.7
20260508064942 60 278 8.0 15.0 0.00 0.00 0.00 35 1010.7
20260508064838 60 264 7.0 13.0 0.00 0.00 0.00 35 1010.7
20260508064726 60 273 7.0 13.0 0.00 0.00 0.00 35 1010.7
20260508064622 60 279 8.0 13.0 0.00 0.00 0.00 35 1010.7
20260508064526 60 268 8.0 13.0 0.00 0.00 0.00 35 1010.7
20260508064428 60 305 8.0 13.0 0.00 0.00 0.00 36 1010.7
20260508064355 60 298 7.0 12.0 0.00 0.00 0.00 36 1010.6
20260508064232 60 303 6.0 13.0 0.00 0.00 0.00 37 1010.7
20260508064118 60 286 7.0 13.0 0.00 0.00 0.00 37 1010.6
20260508064016 60 269 8.0 13.0 0.00 0.00 0.00 37 1010.6
20260508063942 60 291 8.0 13.0 0.00 0.00 0.00 37 1010.6
20260508063823 60 281 7.0 16.0 0.00 0.00 0.00 37 1010.6
20260508063721 60 306 5.0 16.0 0.00 0.00 0.00 37 1010.6
20260508063624 60 299 6.0 16.0 0.00 0.00 0.00 37 1010.6
20260508063518 60 296 9.0 16.0 0.00 0.00 0.00 37 1010.6
20260508063425 60 297 9.0 16.0 0.00 0.00 0.00 37 1010.6
20260508063323 60 304 9.0 16.0 0.00 0.00 0.00 37 1010.6
20260508063230 60 289 9.0 16.0 0.00 0.00 0.00 37 1010.6
20260508063131 60 280 10.0 18.0 0.00 0.00 0.00 37 1010.6
20260508063027 60 299 10.0 18.0 0.00 0.00 0.00 37 1010.5
20260508062933 60 296 10.0 18.0 0.00 0.00 0.00 37 1010.5
20260508062828 60 294 9.0 18.0 0.00 0.00 0.00 37 1010.5
20260508062734 60 294 9.0 18.0 0.00 0.00 0.00 37 1010.5
20260508062633 60 294 9.0 18.0 0.00 0.00 0.00 37 1010.6
20260508062538 60 285 10.0 18.0 0.00 0.00 0.00 38 1010.6
20260508062418 60 292 13.0 18.0 0.00 0.00 0.00 38 1010.6
20260508062315 60 283 11.0 18.0 0.00 0.00 0.00 38 1010.6
20260508062242 60 277 8.0 17.0 0.00 0.00 0.00 38 1010.5
20260508062117 60 273 8.0 17.0 0.00 0.00 0.00 38 1010.6
20260508062024 60 311 10.0 17.0 0.00 0.00 0.00 38 1010.5
20260508061919 60 317 9.0 17.0 0.00 0.00 0.00 38 1010.5
20260508061830 60 295 9.0 17.0 0.00 0.00 0.00 38 1010.5
20260508061728 60 296 8.0 17.0 0.00 0.00 0.00 39 1010.5
20260508061621 60 312 9.0 17.0 0.00 0.00 0.00 39 1010.5
20260508061548 60 289 9.0 17.0 0.00 0.00 0.00 39 1010.5
20260508061424 60 296 9.0 17.0 0.00 0.00 0.00 39 1010.5
20260508061331 60 297 8.0 15.0 0.00 0.00 0.00 40 1010.5
20260508061226 60 326 8.0 14.0 0.00 0.00 0.00 40 1010.5
20260508061140 60 291 7.0 17.0 0.00 0.00 0.00 41 1010.4
20260508061104 60 274 6.0 17.0 0.00 0.00 0.00 41 1010.5
20260508060940 60 271 8.0 17.0 0.00 0.00 0.00 41 1010.5
20260508060844 60 304 8.0 17.0 0.00 0.00 0.00 41 1010.5
20260508060723 60 288 8.0 17.0 0.00 0.00 0.00 42 1010.5
20260508060618 60 300 7.0 17.0 0.00 0.00 0.00 42 1010.5
20260508060524 60 293 8.0 17.0 0.00 0.00 0.00 42 1010.5
20260508060426 60 297 10.0 17.0 0.00 0.00 0.00 42 1010.5
20260508060352 60 301 11.0 17.0 0.00 0.00 0.00 42 1010.5
20260508060228 60 295 9.0 15.0 0.00 0.00 0.00 42 1010.4
20260508060136 60 310 8.0 15.0 0.00 0.00 0.00 42 1010.5
20260508060051 60 281 10.0 15.0 0.00 0.00 0.00 43 1010.5
20260508055934 60 295 10.0 15.0 0.00 0.00 0.00 43 1010.5
20260508055841 60 272 8.0 15.0 0.00 0.00 0.00 43 1010.5
20260508055719 60 304 8.0 15.0 0.00 0.00 0.00 43 1010.5
20260508055619 60 314 8.0 15.0 0.00 0.00 0.00 43 1010.5
20260508055526 60 319 9.0 15.0 0.00 0.00 0.00 43 1010.5
20260508055422 60 317 10.0 15.0 0.00 0.00 0.00 44 1010.5
20260508055326 60 289 8.0 13.0 0.00 0.00 0.00 44 1010.5
20260508055224 60 293 9.0 13.0 0.00 0.00 0.00 44 1010.5
20260508055132 60 283 8.0 13.0 0.00 0.00 0.00 44 1010.5
20260508055027 60 279 8.0 13.0 0.00 0.00 0.00 44 1010.5
20260508054927 60 289 9.0 13.0 0.00 0.00 0.00 44 1010.5
20260508054854 60 294 9.0 13.0 0.00 0.00 0.00 44 1010.4
20260508054740 60 266 9.0 13.0 0.00 0.00 0.00 44 1010.4
20260508054639 61 276 7.0 13.0 0.00 0.00 0.00 44 1010.4
20260508054605 61 266 7.0 13.0 0.00 0.00 0.00 44 1010.5
20260508054420 61 274 8.0 13.0 0.00 0.00 0.00 45 1010.4
20260508054317 61 289 7.0 13.0 0.00 0.00 0.00 45 1010.4
20260508054228 61 269 5.0 13.0 0.00 0.00 0.00 45 1010.4
20260508054120 61 287 7.0 13.0 0.00 0.00 0.00 45 1010.5
20260508054026 61 291 8.0 13.0 0.00 0.00 0.00 45 1010.5
20260508053923 61 285 8.0 13.0 0.00 0.00 0.00 45 1010.4
20260508053830 61 284 8.0 13.0 0.00 0.00 0.00 45 1010.4
20260508053730 61 289 8.0 13.0 0.00 0.00 0.00 45 1010.5
20260508053624 61 304 8.0 13.0 0.00 0.00 0.00 45 1010.4
20260508053535 61 269 8.0 13.0 0.00 0.00 0.00 45 1010.4
20260508053432 61 262 7.0 13.0 0.00 0.00 0.00 45 1010.4
20260508053339 61 289 9.0 14.0 0.00 0.00 0.00 45 1010.4
20260508053235 61 296 9.0 14.0 0.00 0.00 0.00 45 1010.4
20260508053139 61 273 8.0 15.0 0.00 0.00 0.00 45 1010.5
20260508053044 61 278 8.0 15.0 0.00 0.00 0.00 45 1010.5
20260508052921 61 296 7.0 15.0 0.00 0.00 0.00 45 1010.4
20260508052822 61 279 8.0 15.0 0.00 0.00 0.00 45 1010.4
20260508052730 61 291 9.0 15.0 0.00 0.00 0.00 45 1010.4
20260508052626 61 297 9.0 15.0 0.00 0.00 0.00 45 1010.4
20260508052523 61 280 10.0 15.0 0.00 0.00 0.00 46 1010.4
20260508052429 61 314 11.0 15.0 0.00 0.00 0.00 46 1010.4
20260508052327 61 321 12.0 15.0 0.00 0.00 0.00 46 1010.4
20260508052252 61 282 11.0 15.0 0.00 0.00 0.00 46 1010.5
20260508052141 61 296 9.0 15.0 0.00 0.00 0.00 47 1010.5
20260508052016 61 290 8.0 15.0 0.00 0.00 0.00 47 1010.5
20260508051942 61 271 8.0 15.0 0.00 0.00 0.00 47 1010.5
20260508051839 61 283 8.0 15.0 0.00 0.00 0.00 48 1010.5
20260508051722 61 289 9.0 15.0 0.00 0.00 0.00 48 1010.5
20260508051617 61 300 10.0 15.0 0.00 0.00 0.00 48 1010.5
20260508051524 61 283 10.0 15.0 0.00 0.00 0.00 48 1010.5
20260508051423 61 304 10.0 15.0 0.00 0.00 0.00 48 1010.5
20260508051349 61 306 10.0 15.0 0.00 0.00 0.00 48 1010.5
20260508051226 61 292 10.0 15.0 0.00 0.00 0.00 48 1010.5
20260508051134 61 269 11.0 17.0 0.00 0.00 0.00 48 1010.5
20260508051030 61 301 11.0 17.0 0.00 0.00 0.00 48 1010.5
20260508050927 61 287 11.0 17.0 0.00 0.00 0.00 48 1010.5
20260508050854 61 306 10.0 17.0 0.00 0.00 0.00 48 1010.5
20260508050741 61 284 9.0 17.0 0.00 0.00 0.00 48 1010.5
20260508050619 61 295 11.0 17.0 0.00 0.00 0.00 48 1010.5
20260508050525 61 290 11.0 17.0 0.00 0.00 0.00 48 1010.5
20260508050423 61 271 12.0 17.0 0.00 0.00 0.00 48 1010.5
20260508050320 61 307 10.0 17.0 0.00 0.00 0.00 48 1010.5
20260508050246 61 288 7.0 14.0 0.00 0.00 0.00 48 1010.5
20260508050120 61 269 7.0 14.0 0.00 0.00 0.00 48 1010.5
20260508050026 61 270 8.0 14.0 0.00 0.00 0.00 48 1010.5
20260508045926 61 287 9.0 15.0 0.00 0.00 0.00 48 1010.5
20260508045833 61 277 9.0 15.0 0.00 0.00 0.00 48 1010.5
20260508045802 61 293 8.0 15.0 0.00 0.00 0.00 48 1010.5
20260508045615 61 260 7.0 15.0 0.00 0.00 0.00 48 1010.5
20260508045542 61 283 8.0 15.0 0.00 0.00 0.00 49 1010.5
20260508045420 61 278 9.0 15.0 0.00 0.00 0.00 48 1010.5
20260508045316 61 295 9.0 15.0 0.00 0.00 0.00 48 1010.5
20260508045228 61 282 9.0 15.0 0.00 0.00 0.00 48 1010.5
20260508045125 62 271 9.0 15.0 0.00 0.00 0.00 48 1010.6
20260508045032 62 290 8.0 14.0 0.00 0.00 0.00 48 1010.6
20260508044925 62 291 7.0 14.0 0.00 0.00 0.00 49 1010.5
20260508044830 62 286 6.0 11.0 0.00 0.00 0.00 49 1010.5
20260508044728 62 296 6.0 11.0 0.00 0.00 0.00 49 1010.5
20260508044624 62 271 5.0 11.0 0.00 0.00 0.00 49 1010.5
20260508044532 62 281 5.0 9.0 0.00 0.00 0.00 49 1010.5
20260508044439 62 281 6.0 9.0 0.00 0.00 0.00 49 1010.5
20260508044344 62 259 7.0 9.0 0.00 0.00 0.00 48 1010.5
20260508044222 62 269 4.0 9.0 0.00 0.00 0.00 48 1010.6
20260508044118 62 277 3.0 8.0 0.00 0.00 0.00 48 1010.6
20260508044015 62 277 4.0 8.0 0.00 0.00 0.00 48 1010.6
20260508043922 62 278 4.0 8.0 0.00 0.00 0.00 48 1010.5
20260508043823 62 278 4.0 11.0 0.00 0.00 0.00 48 1010.5
20260508043750 62 279 4.0 11.0 0.00 0.00 0.00 48 1010.5
20260508043623 62 281 4.0 11.0 0.00 0.00 0.00 48 1010.6
20260508043530 62 281 4.0 11.0 0.00 0.00 0.00 48 1010.6
20260508043428 62 281 5.0 11.0 0.00 0.00 0.00 48 1010.5
20260508043334 62 280 5.0 11.0 0.00 0.00 0.00 48 1010.5
20260508043215 62 264 3.0 11.0 0.00 0.00 0.00 48 1010.5
20260508043143 63 264 4.0 11.0 0.00 0.00 0.00 48 1010.5
20260508043019 63 255 5.0 11.0 0.00 0.00 0.00 48 1010.5
20260508042917 63 254 5.0 10.0 0.00 0.00 0.00 47 1010.5
20260508042842 63 269 5.0 10.0 0.00 0.00 0.00 47 1010.5
20260508042718 63 248 6.0 10.0 0.00 0.00 0.00 47 1010.5
20260508042645 63 251 6.0 10.0 0.00 0.00 0.00 47 1010.5
20260508042524 63 254 4.0 9.0 0.00 0.00 0.00 46 1010.5
20260508042422 63 247 4.0 9.0 0.00 0.00 0.00 46 1010.5
20260508042320 63 269 5.0 9.0 0.00 0.00 0.00 46 1010.5
20260508042225 63 273 5.0 11.0 0.00 0.00 0.00 46 1010.4
20260508042133 63 258 4.0 11.0 0.00 0.00 0.00 46 1010.4
20260508042049 63 258 4.0 11.0 0.00 0.00 0.00 46 1010.5
20260508041935 63 258 4.0 11.0 0.00 0.00 0.00 46 1010.5
20260508041836 63 296 5.0 11.0 0.00 0.00 0.00 46 1010.4
20260508041720 63 300 6.0 11.0 0.00 0.00 0.00 46 1010.4
20260508041615 63 273 7.0 11.0 0.00 0.00 0.00 46 1010.4
20260508041537 63 279 7.0 11.0 0.00 0.00 0.00 46 1010.4
20260508041441 63 247 5.0 11.0 0.00 0.00 0.00 46 1010.4
20260508041317 63 244 4.0 10.0 0.00 0.00 0.00 45 1010.4
20260508041236 63 244 5.0 10.0 0.00 0.00 0.00 45 1010.4
20260508041117 63 254 5.0 10.0 0.00 0.00 0.00 45 1010.4
20260508041048 63 258 4.0 10.0 0.00 0.00 0.00 45 1010.4
20260508040924 63 257 3.0 10.0 0.00 0.00 0.00 45 1010.4
20260508040821 64 257 4.0 10.0 0.00 0.00 0.00 45 1010.3
20260508040729 64 257 5.0 10.0 0.00 0.00 0.00 45 1010.3
20260508040624 64 257 7.0 10.0 0.00 0.00 0.00 45 1010.4
20260508040528 64 275 6.0 10.0 0.00 0.00 0.00 45 1010.4
20260508040425 64 265 6.0 10.0 0.00 0.00 0.00 45 1010.3
20260508040334 64 277 6.0 10.0 0.00 0.00 0.00 45 1010.3
20260508040241 64 280 8.0 10.0 0.00 0.00 0.00 45 1010.3
20260508040117 64 257 6.0 9.0 0.00 0.00 0.00 45 1010.2
20260508040043 64 248 6.0 9.0 0.00 0.00 0.00 44 1010.2
20260508035921 64 239 4.0 9.0 0.00 0.00 0.00 44 1010.2
20260508035819 64 258 4.0 11.0 0.00 0.00 0.00 44 1010.2
20260508035716 64 258 3.0 11.0 0.00 0.00 0.00 44 1010.2
20260508035625 64 244 3.0 11.0 0.00 0.00 0.00 44 1010.2
20260508035521 64 244 4.0 11.0 0.00 0.00 0.00 43 1010.2
20260508035424 64 244 4.0 11.0 0.00 0.00 0.00 43 1010.2
20260508035322 64 243 4.0 11.0 0.00 0.00 0.00 43 1010.1
20260508035229 65 242 5.0 11.0 0.00 0.00 0.00 43 1010.1
20260508035122 65 241 5.0 11.0 0.00 0.00 0.00 43 1010.1
20260508035028 65 282 5.0 11.0 0.00 0.00 0.00 43 1010.1
20260508034930 65 268 5.0 13.0 0.00 0.00 0.00 43 1010.1
20260508034835 65 253 4.0 13.0 0.00 0.00 0.00 43 1010.1
20260508034730 65 252 6.0 13.0 0.00 0.00 0.00 43 1010.1
20260508034636 65 252 7.0 13.0 0.00 0.00 0.00 42 1010.0
20260508034533 65 237 4.0 13.0 0.00 0.00 0.00 42 1010.0
20260508034440 65 254 4.0 13.0 0.00 0.00 0.00 42 1010.0
20260508034316 65 256 6.0 13.0 0.00 0.00 0.00 42 1009.9
20260508034218 65 270 7.0 13.0 0.00 0.00 0.00 41 1009.9
20260508034122 65 259 7.0 13.0 0.00 0.00 0.00 41 1010.0
20260508034020 65 267 5.0 13.0 0.00 0.00 0.00 41 1010.0
20260508033927 66 248 3.0 10.0 0.00 0.00 0.00 41 1010.0
20260508033824 66 261 4.0 10.0 0.00 0.00 0.00 40 1009.9
20260508033732 66 260 5.0 10.0 0.00 0.00 0.00 40 1009.9
20260508033634 66 262 5.0 12.0 0.00 0.00 0.00 40 1009.9
20260508033530 66 262 4.0 12.0 0.00 0.00 0.00 40 1009.9
20260508033455 66 253 4.0 14.0 0.00 0.00 0.00 40 1009.9
20260508033339 66 261 4.0 16.0 0.00 0.00 0.00 40 1009.9
20260508033217 66 261 6.0 16.0 0.00 0.00 0.00 40 1009.8
20260508033134 66 262 7.0 16.0 0.00 0.00 0.00 40 1009.8
20260508033037 66 286 7.0 16.0 0.00 0.00 0.00 40 1009.8
20260508032918 66 256 8.0 16.0 0.00 0.00 0.00 39 1009.8
20260508032844 66 262 9.0 16.0 0.00 0.00 0.00 39 1009.8
20260508032743 66 265 9.0 17.0 0.00 0.00 0.00 39 1009.8
20260508032615 66 265 10.0 17.0 0.00 0.00 0.00 39 1009.8
20260508032522 66 274 11.0 17.0 0.00 0.00 0.00 39 1009.8
20260508032418 67 279 10.0 17.0 0.00 0.00 0.00 39 1009.7
20260508032323 67 244 8.0 17.0 0.00 0.00 0.00 39 1009.7
20260508032223 67 262 8.0 17.0 0.00 0.00 0.00 38 1009.7
20260508032129 67 250 9.0 17.0 0.00 0.00 0.00 38 1009.7
20260508032026 67 275 10.0 17.0 0.00 0.00 0.00 38 1009.8
20260508031923 67 239 9.0 17.0 0.00 0.00 0.00 38 1009.7
20260508031849 67 252 7.0 14.0 0.00 0.00 0.00 38 1009.7
20260508031726 67 267 6.0 13.0 0.00 0.00 0.00 37 1009.7
20260508031632 67 269 8.0 13.0 0.00 0.00 0.00 37 1009.7
20260508031531 67 265 9.0 13.0 0.00 0.00 0.00 37 1009.7
20260508031438 67 281 8.0 13.0 0.00 0.00 0.00 37 1009.7
20260508031315 68 281 7.0 13.0 0.00 0.00 0.00 37 1009.7
20260508031244 68 275 8.0 13.0 0.00 0.00 0.00 36 1009.7
20260508031138 68 284 7.0 13.0 0.00 0.00 0.00 36 1009.7
20260508031041 68 259 6.0 12.0 0.00 0.00 0.00 36 1009.7
20260508030927 68 267 6.0 13.0 0.00 0.00 0.00 36 1009.7
20260508030822 68 283 7.0 14.0 0.00 0.00 0.00 36 1009.7
20260508030733 68 269 6.0 14.0 0.00 0.00 0.00 36 1009.7
20260508030632 68 275 8.0 16.0 0.00 0.00 0.00 36 1009.6
20260508030538 68 273 8.0 16.0 0.00 0.00 0.00 35 1009.6
20260508030434 68 288 8.0 16.0 0.00 0.00 0.00 35 1009.6
20260508030332 69 261 7.0 16.0 0.00 0.00 0.00 35 1009.6
20260508030238 69 283 8.0 16.0 0.00 0.00 0.00 35 1009.6
20260508030116 69 281 9.0 16.0 0.00 0.00 0.00 35 1009.5
20260508030043 69 294 10.0 16.0 0.00 0.00 0.00 35 1009.5
20260508025919 69 269 11.0 17.0 0.00 0.00 0.00 35 1009.6
20260508025817 69 287 11.0 17.0 0.00 0.00 0.00 34 1009.6
20260508025722 69 281 10.0 17.0 0.00 0.00 0.00 34 1009.5
20260508025618 69 291 9.0 17.0 0.00 0.00 0.00 34 1009.5
20260508025522 69 287 9.0 17.0 0.00 0.00 0.00 34 1009.5
20260508025424 69 274 11.0 17.0 0.00 0.00 0.00 34 1009.5
20260508025330 70 291 11.0 17.0 0.00 0.00 0.00 34 1009.5
20260508025230 70 250 11.0 17.0 0.00 0.00 0.00 34 1009.5
20260508025125 70 311 11.0 17.0 0.00 0.00 0.00 34 1009.5
20260508025030 70 283 9.0 17.0 0.00 0.00 0.00 33 1009.5
20260508024957 70 277 8.0 15.0 0.00 0.00 0.00 33 1009.4
20260508024818 70 308 9.0 15.0 0.00 0.00 0.00 33 1009.4
20260508024717 70 260 8.0 15.0 0.00 0.00 0.00 33 1009.4
20260508024620 70 273 8.0 15.0 0.00 0.00 0.00 33 1009.4
20260508024517 70 302 8.0 15.0 0.00 0.00 0.00 33 1009.4
20260508024421 70 296 7.0 14.0 0.00 0.00 0.00 32 1009.3
20260508024318 70 298 7.0 14.0 0.00 0.00 0.00 32 1009.3
20260508024226 71 287 7.0 14.0 0.00 0.00 0.00 32 1009.3
20260508024120 71 296 7.0 14.0 0.00 0.00 0.00 32 1009.3
20260508024029 71 289 8.0 17.0 0.00 0.00 0.00 32 1009.3
20260508023926 71 280 9.0 17.0 0.00 0.00 0.00 32 1009.3
20260508023852 71 290 8.0 17.0 0.00 0.00 0.00 32 1009.3
20260508023728 71 271 8.0 17.0 0.00 0.00 0.00 31 1009.3
20260508023655 71 290 9.0 17.0 0.00 0.00 0.00 31 1009.3
20260508023539 71 281 9.0 17.0 0.00 0.00 0.00 31 1009.3
20260508023431 71 267 10.0 17.0 0.00 0.00 0.00 31 1009.3
20260508023332 71 280 11.0 17.0 0.00 0.00 0.00 31 1009.3
20260508023241 71 292 11.0 17.0 0.00 0.00 0.00 31 1009.3
20260508023116 72 279 10.0 16.0 0.00 0.00 0.00 31 1009.3
20260508023022 72 304 10.0 16.0 0.00 0.00 0.00 31 1009.3
20260508022939 72 262 8.0 16.0 0.00 0.00 0.00 31 1009.3
20260508022824 72 256 8.0 16.0 0.00 0.00 0.00 31 1009.2
20260508022722 72 282 11.0 16.0 0.00 0.00 0.00 30 1009.2
20260508022649 72 273 11.0 17.0 0.00 0.00 0.00 31 1009.2
20260508022528 72 268 9.0 18.0 0.00 0.00 0.00 31 1009.2
20260508022433 72 277 9.0 18.0 0.00 0.00 0.00 30 1009.2
20260508022338 72 278 10.0 18.0 0.00 0.00 0.00 30 1009.2
20260508022254 72 308 9.0 18.0 0.00 0.00 0.00 30 1009.2
20260508022141 72 290 8.0 18.0 0.00 0.00 0.00 30 1009.2
20260508022016 72 283 10.0 18.0 0.00 0.00 0.00 30 1009.1
20260508021943 72 272 11.0 18.0 0.00 0.00 0.00 30 1009.1
20260508021821 72 269 13.0 19.0 0.00 0.00 0.00 30 1009.2
20260508021717 72 298 12.0 19.0 0.00 0.00 0.00 30 1009.2
20260508021645 72 237 12.0 19.0 0.00 0.00 0.00 29 1009.2
20260508021540 72 284 10.0 19.0 0.00 0.00 0.00 29 1009.2
20260508021444 72 265 9.0 19.0 0.00 0.00 0.00 29 1009.2
20260508021321 73 296 11.0 19.0 0.00 0.00 0.00 29 1009.2
20260508021226 73 304 11.0 19.0 0.00 0.00 0.00 29 1009.2
20260508021153 73 277 10.0 19.0 0.00 0.00 0.00 28 1009.3
20260508021031 73 277 10.0 19.0 0.00 0.00 0.00 28 1009.3
20260508020927 73 291 11.0 19.0 0.00 0.00 0.00 28 1009.2
20260508020832 73 251 11.0 19.0 0.00 0.00 0.00 28 1009.2
20260508020728 73 268 13.0 19.0 0.00 0.00 0.00 28 1009.2
20260508020637 73 311 14.0 19.0 0.00 0.00 0.00 28 1009.2
20260508020528 73 309 10.0 19.0 0.00 0.00 0.00 28 1009.2
20260508020438 73 307 8.0 19.0 0.00 0.00 0.00 28 1009.1
20260508020335 73 277 10.0 19.0 0.00 0.00 0.00 28 1009.2
20260508020242 73 296 11.0 19.0 0.00 0.00 0.00 28 1009.1
20260508020118 73 292 11.0 22.0 0.00 0.00 0.00 27 1009.2
20260508020039 73 299 12.0 22.0 0.00 0.00 0.00 27 1009.2
20260508015918 73 305 14.0 22.0 0.00 0.00 0.00 27 1009.3
20260508015815 73 283 12.0 22.0 0.00 0.00 0.00 27 1009.2
20260508015725 73 303 12.0 22.0 0.00 0.00 0.00 27 1009.3
20260508015618 73 290 11.0 22.0 0.00 0.00 0.00 27 1009.3
20260508015543 73 283 11.0 22.0 0.00 0.00 0.00 27 1009.3
20260508015418 74 269 15.0 22.0 0.00 0.00 0.00 27 1009.3
20260508015315 74 300 13.0 22.0 0.00 0.00 0.00 27 1009.2
20260508015222 74 273 12.0 24.0 0.00 0.00 0.00 27 1009.3
20260508015121 74 294 11.0 24.0 0.00 0.00 0.00 27 1009.3
20260508015018 74 289 11.0 24.0 0.00 0.00 0.00 27 1009.3
20260508014943 74 295 14.0 24.0 0.00 0.00 0.00 27 1009.3
20260508014847 74 270 14.0 24.0 0.00 0.00 0.00 27 1009.3
20260508014721 74 273 12.0 24.0 0.00 0.00 0.00 26 1009.3
20260508014629 74 286 13.0 24.0 0.00 0.00 0.00 26 1009.3
20260508014525 75 275 14.0 24.0 0.00 0.00 0.00 26 1009.3
20260508014429 75 277 15.0 24.0 0.00 0.00 0.00 26 1009.3
20260508014331 75 260 15.0 23.0 0.00 0.00 0.00 25 1009.3
20260508014239 75 281 14.0 19.0 0.00 0.00 0.00 25 1009.3
20260508014137 75 291 13.0 20.0 0.00 0.00 0.00 25 1009.3
20260508014030 75 272 11.0 20.0 0.00 0.00 0.00 24 1009.2
20260508013937 75 267 11.0 20.0 0.00 0.00 0.00 24 1009.2
20260508013833 75 291 11.0 21.0 0.00 0.00 0.00 24 1009.2
20260508013744 75 314 11.0 21.0 0.00 0.00 0.00 24 1009.2
20260508013621 75 298 11.0 21.0 0.00 0.00 0.00 24 1009.1
20260508013517 75 275 11.0 21.0 0.00 0.00 0.00 24 1009.2
20260508013443 75 256 11.0 21.0 0.00 0.00 0.00 25 1009.2
20260508013320 75 273 13.0 21.0 0.00 0.00 0.00 25 1009.1
20260508013248 75 258 14.0 23.0 0.00 0.00 0.00 24 1009.1
20260508013122 76 255 15.0 24.0 0.00 0.00 0.00 24 1009.2
20260508013032 76 276 14.0 24.0 0.00 0.00 0.00 24 1009.2
20260508012936 76 262 12.0 24.0 0.00 0.00 0.00 23 1009.2
20260508012854 76 311 12.0 24.0 0.00 0.00 0.00 24 1009.3
20260508012721 76 271 11.0 24.0 0.00 0.00 0.00 24 1009.3
20260508012615 76 257 11.0 24.0 0.00 0.00 0.00 24 1009.2
20260508012540 76 271 14.0 24.0 0.00 0.00 0.00 23 1009.3
20260508012415 76 281 14.0 24.0 0.00 0.00 0.00 23 1009.2
20260508012339 76 250 11.0 23.0 0.00 0.00 0.00 23 1009.2
20260508012246 76 291 10.0 23.0 0.00 0.00 0.00 24 1009.2
20260508012124 76 266 10.0 23.0 0.00 0.00 0.00 24 1009.2
20260508012021 76 296 11.0 23.0 0.00 0.00 0.00 23 1009.3
20260508011945 76 285 14.0 23.0 0.00 0.00 0.00 23 1009.2
20260508011829 76 273 13.0 23.0 0.00 0.00 0.00 23 1009.2
20260508011727 76 244 11.0 20.0 0.00 0.00 0.00 23 1009.2
20260508011632 76 258 11.0 20.0 0.00 0.00 0.00 23 1009.2
20260508011529 76 267 11.0 20.0 0.00 0.00 0.00 23 1009.2
20260508011439 76 267 11.0 20.0 0.00 0.00 0.00 22 1009.3
20260508011337 76 264 12.0 20.0 0.00 0.00 0.00 22 1009.3
20260508011244 76 289 12.0 20.0 0.00 0.00 0.00 22 1009.3
20260508011118 76 283 12.0 20.0 0.00 0.00 0.00 22 1009.4
20260508011016 76 271 11.0 18.0 0.00 0.00 0.00 22 1009.3
20260508010922 76 309 10.0 18.0 0.00 0.00 0.00 23 1009.3
20260508010819 76 288 10.0 19.0 0.00 0.00 0.00 23 1009.2
20260508010731 76 290 10.0 19.0 0.00 0.00 0.00 22 1009.2
20260508010626 76 292 11.0 19.0 0.00 0.00 0.00 22 1009.2
20260508010521 76 275 12.0 19.0 0.00 0.00 0.00 22 1009.2
20260508010428 76 298 12.0 23.0 0.00 0.00 0.00 22 1009.2
20260508010324 76 285 12.0 23.0 0.00 0.00 0.00 22 1009.3
20260508010230 76 261 11.0 23.0 0.00 0.00 0.00 22 1009.3
20260508010130 76 271 12.0 23.0 0.00 0.00 0.00 22 1009.4
20260508010037 76 275 13.0 23.0 0.00 0.00 0.00 22 1009.4
20260508005934 76 323 12.0 23.0 0.00 0.00 0.00 22 1009.3
20260508005819 76 291 13.0 23.0 0.00 0.00 0.00 22 1009.4
20260508005717 76 283 15.0 23.0 0.00 0.00 0.00 22 1009.4
20260508005618 76 292 14.0 24.0 0.00 0.00 0.00 22 1009.4
20260508005522 76 294 12.0 23.0 0.00 0.00 0.00 22 1009.4
20260508005417 76 279 10.0 23.0 0.00 0.00 0.00 22 1009.4
20260508005318 76 287 10.0 23.0 0.00 0.00 0.00 22 1009.4
20260508005243 76 260 10.0 23.0 0.00 0.00 0.00 22 1009.4
20260508005128 76 287 10.0 23.0 0.00 0.00 0.00 22 1009.4
20260508005023 76 279 14.0 23.0 0.00 0.00 0.00 22 1009.4
20260508004927 76 306 15.0 23.0 0.00 0.00 0.00 22 1009.4
20260508004824 76 310 14.0 21.0 0.00 0.00 0.00 22 1009.3
20260508004731 76 302 13.0 21.0 0.00 0.00 0.00 22 1009.3
20260508004630 76 289 13.0 21.0 0.00 0.00 0.00 22 1009.3
20260508004538 76 308 11.0 19.0 0.00 0.00 0.00 21 1009.4
20260508004436 77 298 9.0 19.0 0.00 0.00 0.00 21 1009.3
20260508004320 77 282 10.0 19.0 0.00 0.00 0.00 21 1009.3
20260508004217 77 309 13.0 19.0 0.00 0.00 0.00 21 1009.4
20260508004120 77 291 13.0 19.0 0.00 0.00 0.00 21 1009.3
20260508004047 77 313 12.0 19.0 0.00 0.00 0.00 21 1009.3
20260508003922 77 300 10.0 19.0 0.00 0.00 0.00 21 1009.3
20260508003826 77 314 11.0 18.0 0.00 0.00 0.00 21 1009.3
20260508003731 77 299 12.0 18.0 0.00 0.00 0.00 21 1009.3
20260508003633 77 266 13.0 18.0 0.00 0.00 0.00 21 1009.3
20260508003537 77 286 11.0 18.0 0.00 0.00 0.00 21 1009.3
20260508003434 77 283 10.0 18.0 0.00 0.00 0.00 21 1009.3
20260508003400 77 304 10.0 19.0 0.00 0.00 0.00 20 1009.2
20260508003217 77 267 10.0 19.0 0.00 0.00 0.00 20 1009.2
20260508003135 77 313 10.0 19.0 0.00 0.00 0.00 20 1009.2
20260508003024 77 261 12.0 19.0 0.00 0.00 0.00 20 1009.2
20260508002922 77 250 12.0 19.0 0.00 0.00 0.00 20 1009.2
20260508002820 77 285 12.0 19.0 0.00 0.00 0.00 20 1009.2
20260508002728 77 282 11.0 22.0 0.00 0.00 0.00 20 1009.2
20260508002622 77 296 10.0 22.0 0.00 0.00 0.00 20 1009.1
20260508002529 77 276 11.0 22.0 0.00 0.00 0.00 20 1009.1
20260508002426 77 289 12.0 22.0 0.00 0.00 0.00 20 1009.2
20260508002326 77 269 12.0 22.0 0.00 0.00 0.00 20 1009.1
20260508002232 77 304 10.0 22.0 0.00 0.00 0.00 20 1009.1
20260508002129 77 301 11.0 22.0 0.00 0.00 0.00 20 1009.0
20260508002034 77 268 13.0 22.0 0.00 0.00 0.00 20 1009.1
20260508001931 77 290 13.0 22.0 0.00 0.00 0.00 20 1009.1
20260508001857 77 298 11.0 22.0 0.00 0.00 0.00 20 1009.1
20260508001717 77 332 11.0 20.0 0.00 0.00 0.00 20 1009.1
20260508001644 77 299 11.0 23.0 0.00 0.00 0.00 20 1009.1
20260508001521 78 277 12.0 24.0 0.00 0.00 0.00 20 1009.2
20260508001417 78 277 12.0 24.0 0.00 0.00 0.00 20 1009.2
20260508001322 78 289 13.0 24.0 0.00 0.00 0.00 20 1009.1
20260508001240 78 272 14.0 24.0 0.00 0.00 0.00 20 1009.1
20260508001124 78 281 14.0 24.0 0.00 0.00 0.00 20 1009.1
20260508001051 78 291 16.0 24.0 0.00 0.00 0.00 20 1009.1
20260508000949 78 258 16.0 24.0 0.00 0.00 0.00 20 1009.1
20260508000835 78 281 15.0 24.0 0.00 0.00 0.00 20 1009.0
20260508000733 78 258 15.0 24.0 0.00 0.00 0.00 20 1009.1
20260508000640 78 274 15.0 24.0 0.00 0.00 0.00 21 1009.0
20260508000516 78 271 14.0 24.0 0.00 0.00 0.00 21 1009.0
20260508000434 78 256 13.0 24.0 0.00 0.00 0.00 20 1009.0
20260508000315 79 302 15.0 24.0 0.00 0.00 0.00 20 1009.0
20260508000222 79 314 17.0 24.0 0.00 0.00 0.00 20 1009.1
20260508000118 79 271 17.0 23.0 0.00 0.00 0.00 21 1008.9
20260508000024 79 271 16.0 23.0 0.00 0.00 0.00 21 1009.0
20260507235942 79 254 15.0 21.0 0.00 0.00 0.00 21 1009.0
20260507235827 79 284 14.0 20.0 0.00 0.00 0.00 22 1009.0
20260507235724 79 275 14.0 19.0 0.00 0.00 0.00 22 1009.0
20260507235651 79 265 13.0 19.0 0.00 0.00 0.00 22 1009.0
20260507235538 79 281 13.0 19.0 0.00 0.00 0.00 22 1008.9
20260507235435 79 280 12.0 19.0 0.00 0.00 0.00 22 1008.9
20260507235402 79 242 10.0 15.0 0.00 0.00 0.00 22 1008.9
20260507235240 79 296 9.0 15.0 0.00 0.00 0.00 22 1008.9
20260507235124 79 308 10.0 15.0 0.00 0.00 0.00 23 1008.9
20260507235022 79 310 10.0 15.0 0.00 0.00 0.00 23 1008.9
20260507234920 79 287 10.0 16.0 0.00 0.00 0.00 23 1009.0
20260507234829 79 309 10.0 17.0 0.00 0.00 0.00 23 1009.0
20260507234732 79 308 10.0 17.0 0.00 0.00 0.00 23 1008.9
20260507234631 79 329 10.0 17.0 0.00 0.00 0.00 23 1008.9
20260507234528 79 320 9.0 17.0 0.00 0.00 0.00 23 1008.9
20260507234433 79 285 9.0 17.0 0.00 0.00 0.00 23 1008.9
20260507234329 79 292 10.0 17.0 0.00 0.00 0.00 23 1008.9
20260507234237 79 283 10.0 17.0 0.00 0.00 0.00 23 1008.9
20260507234116 79 291 12.0 17.0 0.00 0.00 0.00 23 1009.0
20260507234043 79 258 11.0 17.0 0.00 0.00 0.00 23 1008.9
20260507233918 79 275 9.0 21.0 0.00 0.00 0.00 23 1009.0
20260507233815 80 271 8.0 21.0 0.00 0.00 0.00 23 1009.1
20260507233723 80 283 8.0 21.0 0.00 0.00 0.00 23 1009.0
20260507233618 80 291 9.0 21.0 0.00 0.00 0.00 23 1009.1
20260507233527 80 300 9.0 21.0 0.00 0.00 0.00 23 1009.1
20260507233424 80 291 9.0 21.0 0.00 0.00 0.00 23 1009.1
20260507233321 80 290 11.0 21.0 0.00 0.00 0.00 23 1009.1
20260507233228 80 281 12.0 21.0 0.00 0.00 0.00 23 1009.1
20260507233124 80 306 11.0 21.0 0.00 0.00 0.00 23 1009.1
20260507233031 80 250 10.0 18.0 0.00 0.00 0.00 23 1009.1
20260507232928 80 282 10.0 18.0 0.00 0.00 0.00 23 1009.1
20260507232839 80 270 11.0 18.0 0.00 0.00 0.00 23 1009.0
20260507232715 80 250 12.0 20.0 0.00 0.00 0.00 23 1009.1
20260507232644 80 244 12.0 20.0 0.00 0.00 0.00 23 1009.1
20260507232519 79 241 11.0 21.0 0.00 0.00 0.00 23 1009.1
20260507232416 79 296 12.0 21.0 0.00 0.00 0.00 23 1009.1
20260507232322 79 296 12.0 21.0 0.00 0.00 0.00 23 1009.0
20260507232223 79 285 11.0 21.0 0.00 0.00 0.00 23 1009.0
20260507232147 79 255 11.0 21.0 0.00 0.00 0.00 23 1009.0
20260507232052 79 273 11.0 21.0 0.00 0.00 0.00 23 1009.0
20260507231929 79 273 13.0 21.0 0.00 0.00 0.00 23 1009.0
20260507231826 79 279 14.0 21.0 0.00 0.00 0.00 23 1009.1
20260507231728 79 269 12.0 20.0 0.00 0.00 0.00 23 1009.0
20260507231636 79 282 12.0 20.0 0.00 0.00 0.00 23 1009.1
20260507231530 79 273 10.0 20.0 0.00 0.00 0.00 24 1009.0
20260507231430 79 291 11.0 20.0 0.00 0.00 0.00 23 1009.0
20260507231317 79 261 13.0 20.0 0.00 0.00 0.00 23 1009.1
20260507231235 79 286 12.0 20.0 0.00 0.00 0.00 23 1009.1
20260507231138 79 271 10.0 20.0 0.00 0.00 0.00 24 1009.1
20260507231015 79 283 13.0 21.0 0.00 0.00 0.00 23 1009.1
20260507230941 79 291 13.0 21.0 0.00 0.00 0.00 23 1009.1
20260507230843 79 245 12.0 21.0 0.00 0.00 0.00 22 1009.1
20260507230725 79 269 12.0 21.0 0.00 0.00 0.00 21 1009.1
20260507230619 79 274 13.0 21.0 0.00 0.00 0.00 21 1009.2
20260507230545 79 254 14.0 21.0 0.00 0.00 0.00 22 1009.2
20260507230450 79 227 14.0 21.0 0.00 0.00 0.00 22 1009.2
20260507230324 79 247 13.0 21.0 0.00 0.00 0.00 22 1009.2
20260507230230 80 272 13.0 21.0 0.00 0.00 0.00 22 1009.2
20260507230129 80 246 11.0 18.0 0.00 0.00 0.00 22 1009.1
20260507230053 80 286 12.0 21.0 0.00 0.00 0.00 22 1009.1
20260507225958 80 283 11.0 27.0 0.00 0.00 0.00 22 1009.1
20260507225817 80 248 11.0 27.0 0.00 0.00 0.00 22 1009.1
20260507225716 80 267 13.0 27.0 0.00 0.00 0.00 22 1009.1
20260507225619 80 235 12.0 27.0 0.00 0.00 0.00 22 1009.1
20260507225516 80 248 12.0 27.0 0.00 0.00 0.00 22 1009.1
20260507225443 80 245 12.0 27.0 0.00 0.00 0.00 21 1009.1
20260507225326 80 256 16.0 27.0 0.00 0.00 0.00 21 1009.1
20260507225220 80 271 18.0 27.0 0.00 0.00 0.00 21 1009.2
20260507225118 81 267 16.0 26.0 0.00 0.00 0.00 21 1009.2
20260507225024 81 257 11.0 23.0 0.00 0.00 0.00 21 1009.3
20260507224920 81 264 9.0 21.0 0.00 0.00 0.00 22 1009.2
20260507224819 81 276 11.0 21.0 0.00 0.00 0.00 21 1009.3
20260507224715 81 287 12.0 21.0 0.00 0.00 0.00 21 1009.4
20260507224644 81 305 12.0 21.0 0.00 0.00 0.00 21 1009.4
20260507224520 82 304 15.0 21.0 0.00 0.00 0.00 21 1009.3
20260507224422 82 273 14.0 21.0 0.00 0.00 0.00 21 1009.2
20260507224327 82 294 12.0 20.0 0.00 0.00 0.00 21 1009.2
20260507224224 82 297 11.0 20.0 0.00 0.00 0.00 21 1009.3
20260507224153 82 243 10.0 20.0 0.00 0.00 0.00 21 1009.3
20260507224056 82 252 12.0 20.0 0.00 0.00 0.00 21 1009.3
20260507223931 82 267 11.0 20.0 0.00 0.00 0.00 21 1009.3
20260507223828 82 243 9.0 20.0 0.00 0.00 0.00 21 1009.3
20260507223739 82 267 8.0 20.0 0.00 0.00 0.00 21 1009.4
20260507223706 82 273 12.0 20.0 0.00 0.00 0.00 21 1009.4
20260507223519 82 283 13.0 20.0 0.00 0.00 0.00 21 1009.4
20260507223416 82 235 11.0 20.0 0.00 0.00 0.00 21 1009.3
20260507223342 82 280 9.0 20.0 0.00 0.00 0.00 21 1009.4
20260507223219 82 237 10.0 20.0 0.00 0.00 0.00 21 1009.3
20260507223125 82 308 12.0 20.0 0.00 0.00 0.00 21 1009.4
20260507223042 82 250 12.0 20.0 0.00 0.00 0.00 21 1009.4
20260507222932 82 260 11.0 20.0 0.00 0.00 0.00 22 1009.4
20260507222829 82 270 11.0 18.0 0.00 0.00 0.00 21 1009.4
20260507222735 82 275 12.0 18.0 0.00 0.00 0.00 21 1009.4
20260507222703 82 277 12.0 18.0 0.00 0.00 0.00 21 1009.4
20260507222518 82 253 12.0 18.0 0.00 0.00 0.00 21 1009.4
20260507222416 82 245 13.0 18.0 0.00 0.00 0.00 21 1009.4
20260507222327 82 287 13.0 18.0 0.00 0.00 0.00 21 1009.4
20260507222222 82 239 9.0 18.0 0.00 0.00 0.00 22 1009.4
20260507222141 82 246 8.0 18.0 0.00 0.00 0.00 21 1009.4
20260507222016 82 259 10.0 18.0 0.00 0.00 0.00 21 1009.5
20260507221914 82 256 12.0 18.0 0.00 0.00 0.00 21 1009.5
20260507221821 82 253 12.0 20.0 0.00 0.00 0.00 21 1009.5
20260507221719 82 248 12.0 20.0 0.00 0.00 0.00 21 1009.5
20260507221616 82 252 13.0 20.0 0.00 0.00 0.00 20 1009.5
20260507221523 82 256 12.0 20.0 0.00 0.00 0.00 21 1009.5
20260507221420 82 267 10.0 20.0 0.00 0.00 0.00 20 1009.5
20260507221323 82 285 10.0 20.0 0.00 0.00 0.00 20 1009.5
20260507221221 82 299 10.0 20.0 0.00 0.00 0.00 20 1009.6
20260507221126 82 287 13.0 20.0 0.00 0.00 0.00 20 1009.6
20260507221020 82 277 13.0 20.0 0.00 0.00 0.00 21 1009.5
20260507220931 82 257 13.0 20.0 0.00 0.00 0.00 21 1009.5
20260507220858 82 289 14.0 20.0 0.00 0.00 0.00 21 1009.6
20260507220734 82 246 13.0 20.0 0.00 0.00 0.00 21 1009.5
20260507220631 82 281 12.0 19.0 0.00 0.00 0.00 21 1009.6
20260507220534 82 262 11.0 19.0 0.00 0.00 0.00 21 1009.5
20260507220429 82 242 11.0 19.0 0.00 0.00 0.00 21 1009.6
20260507220334 82 267 11.0 19.0 0.00 0.00 0.00 21 1009.7
20260507220235 82 260 12.0 19.0 0.00 0.00 0.00 21 1009.7
20260507220202 82 252 13.0 19.0 0.00 0.00 0.00 20 1009.7
20260507220017 82 250 13.0 19.0 0.00 0.00 0.00 21 1009.7
20260507215943 82 294 12.0 19.0 0.00 0.00 0.00 21 1009.7
20260507215821 82 279 10.0 16.0 0.00 0.00 0.00 22 1009.7
20260507215718 82 291 8.0 16.0 0.00 0.00 0.00 22 1009.6
20260507215631 82 288 9.0 16.0 0.00 0.00 0.00 22 1009.6
20260507215545 82 265 8.0 16.0 0.00 0.00 0.00 22 1009.7
20260507215450 82 271 6.0 12.0 0.00 0.00 0.00 22 1009.7
20260507215334 82 273 6.0 10.0 0.00 0.00 0.00 22 1009.6
20260507215231 82 240 6.0 13.0 0.00 0.00 0.00 22 1009.7
20260507215126 82 254 5.0 16.0 0.00 0.00 0.00 23 1009.7
20260507215051 82 317 5.0 16.0 0.00 0.00 0.00 23 1009.7
20260507214925 82 293 6.0 17.0 0.00 0.00 0.00 22 1009.8
20260507214836 82 291 6.0 17.0 0.00 0.00 0.00 22 1009.7
20260507214739 82 254 6.0 17.0 0.00 0.00 0.00 22 1009.7
20260507214615 82 277 7.0 17.0 0.00 0.00 0.00 23 1009.8
20260507214541 82 249 7.0 17.0 0.00 0.00 0.00 23 1009.8
20260507214438 82 235 10.0 17.0 0.00 0.00 0.00 22 1009.8
20260507214403 82 260 12.0 17.0 0.00 0.00 0.00 22 1009.9
20260507214219 82 257 12.0 17.0 0.00 0.00 0.00 22 1009.8
20260507214144 82 267 11.0 17.0 0.00 0.00 0.00 22 1009.7
20260507214024 82 295 11.0 17.0 0.00 0.00 0.00 21 1009.8
20260507213930 82 262 12.0 17.0 0.00 0.00 0.00 21 1009.8
20260507213824 82 272 12.0 17.0 0.00 0.00 0.00 21 1009.7
20260507213729 82 272 11.0 17.0 0.00 0.00 0.00 21 1009.7
20260507213629 82 303 11.0 17.0 0.00 0.00 0.00 21 1009.7
20260507213525 82 280 11.0 21.0 0.00 0.00 0.00 21 1009.7
20260507213431 82 257 10.0 21.0 0.00 0.00 0.00 22 1009.7
20260507213341 82 257 9.0 21.0 0.00 0.00 0.00 22 1009.7
20260507213219 82 233 8.0 21.0 0.00 0.00 0.00 24 1009.7
20260507213122 82 217 7.0 21.0 0.00 0.00 0.00 22 1009.8
20260507213018 82 277 10.0 21.0 0.00 0.00 0.00 22 1009.8
20260507212924 82 262 12.0 21.0 0.00 0.00 0.00 22 1009.8
20260507212840 81 248 13.0 21.0 0.00 0.00 0.00 22 1009.8
20260507212728 81 252 12.0 21.0 0.00 0.00 0.00 22 1009.8
20260507212623 81 262 12.0 19.0 0.00 0.00 0.00 23 1009.8
20260507212530 81 273 12.0 19.0 0.00 0.00 0.00 23 1009.8
20260507212427 81 281 13.0 19.0 0.00 0.00 0.00 22 1009.8
20260507212333 81 268 13.0 19.0 0.00 0.00 0.00 23 1009.8
20260507212238 81 244 12.0 19.0 0.00 0.00 0.00 23 1009.8
20260507212157 81 260 12.0 19.0 0.00 0.00 0.00 23 1009.9
20260507212039 81 247 10.0 19.0 0.00 0.00 0.00 23 1009.9
20260507211916 81 248 10.0 16.0 0.00 0.00 0.00 23 1009.9
20260507211816 81 245 11.0 16.0 0.00 0.00 0.00 23 1009.9
20260507211725 80 267 12.0 16.0 0.00 0.00 0.00 23 1009.8
20260507211619 80 264 12.0 16.0 0.00 0.00 0.00 23 1009.8
20260507211527 80 242 10.0 16.0 0.00 0.00 0.00 23 1009.8
20260507211424 80 236 9.0 15.0 0.00 0.00 0.00 24 1009.9
20260507211319 80 294 7.0 14.0 0.00 0.00 0.00 24 1009.9
20260507211226 79 298 5.0 10.0 0.00 0.00 0.00 24 1009.9
20260507211158 79 271 3.0 10.0 0.00 0.00 0.00 24 1009.9
20260507211032 79 329 2.0 10.0 0.00 0.00 0.00 25 1009.9
20260507210937 79 341 2.0 10.0 0.00 0.00 0.00 24 1009.9
20260507210831 79 344 3.0 10.0 0.00 0.00 0.00 24 1009.9
20260507210738 79 318 3.0 10.0 0.00 0.00 0.00 23 1009.9
20260507210615 79 5 3.0 10.0 0.00 0.00 0.00 23 1010.0
20260507210540 79 10 5.0 10.0 0.00 0.00 0.00 23 1010.0
20260507210420 79 321 6.0 10.0 0.00 0.00 0.00 23 1010.0
20260507210316 79 350 5.0 9.0 0.00 0.00 0.00 24 1010.0
20260507210244 79 22 5.0 9.0 0.00 0.00 0.00 24 1010.0
20260507210119 79 95 4.0 10.0 0.00 0.00 0.00 23 1010.0
20260507210017 79 47 4.0 10.0 0.00 0.00 0.00 23 1010.0
20260507205923 79 40 4.0 10.0 0.00 0.00 0.00 23 1010.0
20260507205824 79 346 4.0 10.0 0.00 0.00 0.00 23 1010.0
20260507205750 79 342 4.0 10.0 0.00 0.00 0.00 24 1010.0
20260507205627 79 360 4.0 10.0 0.00 0.00 0.00 24 1010.1
20260507205533 79 5 4.0 10.0 0.00 0.00 0.00 24 1010.0
20260507205429 79 36 5.0 10.0 0.00 0.00 0.00 23 1010.0
20260507205324 79 346 6.0 10.0 0.00 0.00 0.00 23 1010.2
20260507205231 79 319 6.0 10.0 0.00 0.00 0.00 23 1010.2
20260507205132 79 348 5.0 10.0 0.00 0.00 0.00 23 1010.1
20260507205038 79 10 5.0 11.0 0.00 0.00 0.00 23 1010.1
20260507204942 79 15 5.0 16.0 0.00 0.00 0.00 23 1010.1
20260507204817 79 19 2.0 16.0 0.00 0.00 0.00 23 1010.1
20260507204716 78 39 3.0 16.0 0.00 0.00 0.00 23 1010.2
20260507204620 78 38 5.0 16.0 0.00 0.00 0.00 23 1010.2
20260507204517 78 38 5.0 16.0 0.00 0.00 0.00 24 1010.2
20260507204426 78 22 6.0 16.0 0.00 0.00 0.00 26 1010.2
20260507204321 78 24 7.0 16.0 0.00 0.00 0.00 25 1010.2
20260507204228 78 28 8.0 16.0 0.00 0.00 0.00 24 1010.2
20260507204124 78 34 10.0 16.0 0.00 0.00 0.00 24 1010.2
20260507204029 78 19 8.0 13.0 0.00 0.00 0.00 23 1010.2
20260507203926 78 360 7.0 11.0 0.00 0.00 0.00 24 1010.2
20260507203822 78 21 6.0 10.0 0.00 0.00 0.00 25 1010.3
20260507203733 78 19 5.0 10.0 0.00 0.00 0.00 24 1010.3
20260507203632 78 19 5.0 11.0 0.00 0.00 0.00 23 1010.3
20260507203554 78 337 5.0 11.0 0.00 0.00 0.00 23 1010.3
20260507203431 78 1 5.0 11.0 0.00 0.00 0.00 24 1010.3
20260507203336 78 19 5.0 11.0 0.00 0.00 0.00 24 1010.3
20260507203244 78 344 4.0 11.0 0.00 0.00 0.00 24 1010.3
20260507203119 78 35 4.0 11.0 0.00 0.00 0.00 23 1010.4
20260507203021 78 338 6.0 11.0 0.00 0.00 0.00 24 1010.3
20260507202926 78 15 5.0 18.0 0.00 0.00 0.00 24 1010.3
20260507202822 78 331 5.0 18.0 0.00 0.00 0.00 24 1010.3
20260507202722 78 15 5.0 18.0 0.00 0.00 0.00 23 1010.4
20260507202625 79 51 4.0 18.0 0.00 0.00 0.00 22 1010.4
20260507202522 79 203 5.0 18.0 0.00 0.00 0.00 22 1010.4
20260507202427 79 319 5.0 18.0 0.00 0.00 0.00 22 1010.4
20260507202351 79 337 5.0 18.0 0.00 0.00 0.00 23 1010.3
20260507202301 79 355 8.0 18.0 0.00 0.00 0.00 22 1010.3
20260507202135 79 326 9.0 18.0 0.00 0.00 0.00 22 1010.3
20260507202017 79 262 4.0 12.0 0.00 0.00 0.00 21 1010.4
20260507201915 79 250 2.0 11.0 0.00 0.00 0.00 22 1010.4
20260507201842 79 285 4.0 11.0 0.00 0.00 0.00 21 1010.4
20260507201720 79 271 5.0 11.0 0.00 0.00 0.00 21 1010.4
20260507201624 79 292 5.0 12.0 0.00 0.00 0.00 20 1010.4
20260507201519 79 285 6.0 12.0 0.00 0.00 0.00 21 1010.5
20260507201446 79 269 7.0 12.0 0.00 0.00 0.00 21 1010.5
20260507201334 79 300 8.0 12.0 0.00 0.00 0.00 21 1010.5
20260507201301 79 273 8.0 12.0 0.00 0.00 0.00 21 1010.5
20260507201116 79 318 6.0 12.0 0.00 0.00 0.00 21 1010.5
20260507201033 79 311 5.0 12.0 0.00 0.00 0.00 21 1010.5
20260507200940 79 311 6.0 12.0 0.00 0.00 0.00 20 1010.6
20260507200818 79 266 8.0 12.0 0.00 0.00 0.00 21 1010.6
20260507200747 78 250 7.0 12.0 0.00 0.00 0.00 21 1010.6
20260507200625 78 276 5.0 11.0 0.00 0.00 0.00 20 1010.6
20260507200521 78 215 4.0 11.0 0.00 0.00 0.00 21 1010.6
20260507200448 78 298 3.0 11.0 0.00 0.00 0.00 23 1010.6
20260507200331 78 356 4.0 11.0 0.00 0.00 0.00 24 1010.6
20260507200228 78 325 5.0 11.0 0.00 0.00 0.00 23 1010.7
20260507200135 78 308 5.0 11.0 0.00 0.00 0.00 23 1010.6
20260507200030 78 311 5.0 11.0 0.00 0.00 0.00 23 1010.6
20260507195941 78 312 6.0 11.0 0.00 0.00 0.00 23 1010.6
20260507195818 78 298 7.0 11.0 0.00 0.00 0.00 22 1010.7
20260507195737 77 262 7.0 11.0 0.00 0.00 0.00 22 1010.7
20260507195622 77 254 6.0 9.0 0.00 0.00 0.00 22 1010.7
20260507195519 76 258 6.0 10.0 0.00 0.00 0.00 23 1010.7
20260507195425 76 267 5.0 10.0 0.00 0.00 0.00 23 1010.7
20260507195321 76 242 3.0 12.0 0.00 0.00 0.00 24 1010.7
20260507195231 76 63 2.0 12.0 0.00 0.00 0.00 27 1010.7
20260507195126 75 38 3.0 12.0 0.00 0.00 0.00 27 1010.7
20260507195032 75 38 4.0 12.0 0.00 0.00 0.00 27 1010.7
20260507194949 75 27 5.0 12.0 0.00 0.00 0.00 27 1010.7
20260507194834 75 5 5.0 12.0 0.00 0.00 0.00 27 1010.7
20260507194800 75 327 5.0 12.0 0.00 0.00 0.00 28 1010.7
20260507194657 75 5 6.0 12.0 0.00 0.00 0.00 27 1010.7
20260507194523 75 21 4.0 12.0 0.00 0.00 0.00 27 1010.8
20260507194423 75 163 2.0 8.0 0.00 0.00 0.00 27 1010.7
20260507194320 75 163 1.0 8.0 0.00 0.00 0.00 26 1010.8
20260507194227 75 175 1.0 8.0 0.00 0.00 0.00 27 1010.8
20260507194123 75 175 1.0 8.0 0.00 0.00 0.00 27 1010.8
20260507194029 75 174 2.0 8.0 0.00 0.00 0.00 26 1010.8
20260507193925 75 174 4.0 9.0 0.00 0.00 0.00 26 1010.7
20260507193825 75 149 3.0 9.0 0.00 0.00 0.00 26 1010.8
20260507193751 75 90 1.0 9.0 0.00 0.00 0.00 26 1010.8
20260507193637 75 339 2.0 9.0 0.00 0.00 0.00 27 1010.8
20260507193532 75 333 3.0 9.0 0.00 0.00 0.00 26 1010.8
20260507193429 75 332 5.0 9.0 0.00 0.00 0.00 26 1010.8
20260507193336 75 284 5.0 9.0 0.00 0.00 0.00 27 1010.9
20260507193243 75 294 6.0 9.0 0.00 0.00 0.00 26 1010.9
20260507193138 75 325 6.0 9.0 0.00 0.00 0.00 27 1010.9
20260507193018 75 29 6.0 9.0 0.00 0.00 0.00 28 1010.9
20260507192924 75 5 5.0 8.0 0.00 0.00 0.00 28 1010.8
20260507192850 75 28 3.0 8.0 0.00 0.00 0.00 28 1010.8
20260507192726 75 140 2.0 8.0 0.00 0.00 0.00 27 1010.9
20260507192635 75 142 2.0 8.0 0.00 0.00 0.00 27 1010.9
20260507192527 74 141 3.0 8.0 0.00 0.00 0.00 28 1010.9
20260507192453 74 137 3.0 8.0 0.00 0.00 0.00 30 1010.9
20260507192358 74 50 2.0 5.0 0.00 0.00 0.00 30 1010.9
20260507192240 74 46 2.0 5.0 0.00 0.00 0.00 29 1011.0
20260507192124 74 46 3.0 5.0 0.00 0.00 0.00 29 1011.0
20260507192042 74 40 3.0 9.0 0.00 0.00 0.00 29 1011.0
20260507191928 74 36 2.0 9.0 0.00 0.00 0.00 30 1011.0
20260507191832 74 86 1.0 9.0 0.00 0.00 0.00 29 1011.0
20260507191729 74 79 1.0 9.0 0.00 0.00 0.00 29 1011.1
20260507191625 74 79 2.0 10.0 0.00 0.00 0.00 30 1011.1
20260507191516 74 79 3.0 10.0 0.00 0.00 0.00 30 1011.1
20260507191433 74 49 4.0 10.0 0.00 0.00 0.00 30 1011.1
20260507191338 74 34 4.0 10.0 0.00 0.00 0.00 29 1011.1
20260507191245 74 33 5.0 10.0 0.00 0.00 0.00 30 1011.1
20260507191119 74 77 5.0 10.0 0.00 0.00 0.00 31 1011.2
20260507191016 74 40 4.0 10.0 0.00 0.00 0.00 30 1011.2
20260507190941 74 60 3.0 10.0 0.00 0.00 0.00 30 1011.2
20260507190818 74 40 4.0 10.0 0.00 0.00 0.00 30 1011.2
20260507190728 74 319 4.0 10.0 0.00 0.00 0.00 29 1011.2
20260507190657 74 319 5.0 10.0 0.00 0.00 0.00 29 1011.2
20260507190530 74 348 4.0 10.0 0.00 0.00 0.00 30 1011.2
20260507190437 74 359 5.0 10.0 0.00 0.00 0.00 32 1011.2
20260507190333 74 23 5.0 10.0 0.00 0.00 0.00 32 1011.2
20260507190239 74 46 5.0 10.0 0.00 0.00 0.00 32 1011.2
20260507190145 74 101 5.0 10.0 0.00 0.00 0.00 31 1011.2
20260507190020 74 100 5.0 10.0 0.00 0.00 0.00 33 1011.2
20260507185921 73 74 3.0 9.0 0.00 0.00 0.00 33 1011.2
20260507185848 73 77 3.0 9.0 0.00 0.00 0.00 34 1011.2
20260507185730 73 56 3.0 9.0 0.00 0.00 0.00 33 1011.2
20260507185629 73 15 3.0 5.0 0.00 0.00 0.00 33 1011.3
20260507185530 73 27 2.0 5.0 0.00 0.00 0.00 33 1011.2
20260507185435 73 40 2.0 4.0 0.00 0.00 0.00 32 1011.2
20260507185333 73 40 3.0 4.0 0.00 0.00 0.00 33 1011.3
20260507185232 73 37 3.0 4.0 0.00 0.00 0.00 32 1011.3
20260507185141 73 23 2.0 4.0 0.00 0.00 0.00 33 1011.3
20260507185017 73 23 2.0 4.0 0.00 0.00 0.00 32 1011.3
20260507184924 73 22 3.0 4.0 0.00 0.00 0.00 32 1011.3
20260507184818 73 19 2.0 4.0 0.00 0.00 0.00 33 1011.3
20260507184725 72 19 3.0 7.0 0.00 0.00 0.00 33 1011.3
20260507184621 72 19 2.0 7.0 0.00 0.00 0.00 34 1011.3
20260507184528 72 19 2.0 7.0 0.00 0.00 0.00 33 1011.3
20260507184428 72 115 3.0 7.0 0.00 0.00 0.00 33 1011.4
20260507184335 72 114 3.0 8.0 0.00 0.00 0.00 33 1011.3
20260507184232 72 106 2.0 8.0 0.00 0.00 0.00 34 1011.3
20260507184130 72 104 2.0 8.0 0.00 0.00 0.00 34 1011.4
20260507184034 72 104 3.0 8.0 0.00 0.00 0.00 33 1011.3
20260507183932 72 99 4.0 8.0 0.00 0.00 0.00 33 1011.4
20260507183838 72 106 3.0 8.0 0.00 0.00 0.00 34 1011.4
20260507183742 72 26 2.0 8.0 0.00 0.00 0.00 33 1011.4
20260507183617 72 25 3.0 8.0 0.00 0.00 0.00 33 1011.4
20260507183522 72 1 4.0 8.0 0.00 0.00 0.00 33 1011.4
20260507183420 72 29 2.0 9.0 0.00 0.00 0.00 34 1011.4
20260507183327 72 23 2.0 9.0 0.00 0.00 0.00 34 1011.4
20260507183222 72 24 2.0 10.0 0.00 0.00 0.00 34 1011.4
20260507183134 72 23 2.0 10.0 0.00 0.00 0.00 34 1011.4
20260507183029 72 23 2.0 10.0 0.00 0.00 0.00 34 1011.5
20260507182935 72 21 2.0 10.0 0.00 0.00 0.00 34 1011.5
20260507182832 72 22 3.0 10.0 0.00 0.00 0.00 34 1011.5
20260507182740 72 5 5.0 10.0 0.00 0.00 0.00 34 1011.5
20260507182615 72 10 6.0 10.0 0.00 0.00 0.00 34 1011.5
20260507182540 72 31 6.0 10.0 0.00 0.00 0.00 35 1011.5
20260507182419 72 38 5.0 10.0 0.00 0.00 0.00 34 1011.4
20260507182345 72 10 5.0 10.0 0.00 0.00 0.00 34 1011.4
20260507182224 72 10 4.0 10.0 0.00 0.00 0.00 34 1011.5
20260507182117 72 39 2.0 10.0 0.00 0.00 0.00 36 1011.5
20260507182024 72 46 2.0 10.0 0.00 0.00 0.00 35 1011.5
20260507181948 72 46 3.0 10.0 0.00 0.00 0.00 35 1011.5
20260507181844 72 46 5.0 10.0 0.00 0.00 0.00 35 1011.6
20260507181731 72 25 7.0 10.0 0.00 0.00 0.00 36 1011.6
20260507181647 72 37 7.0 10.0 0.00 0.00 0.00 36 1011.5
20260507181535 72 350 6.0 10.0 0.00 0.00 0.00 36 1011.5
20260507181439 72 15 5.0 10.0 0.00 0.00 0.00 36 1011.5
20260507181336 72 15 5.0 10.0 0.00 0.00 0.00 35 1011.4
20260507181222 72 348 5.0 10.0 0.00 0.00 0.00 36 1011.5
20260507181118 71 27 4.0 9.0 0.00 0.00 0.00 37 1011.5
20260507181023 71 334 3.0 9.0 0.00 0.00 0.00 37 1011.5
20260507180950 71 359 1.0 4.0 0.00 0.00 0.00 37 1011.5
20260507180822 71 329 1.0 4.0 0.00 0.00 0.00 37 1011.5
20260507180724 71 329 1.0 6.0 0.00 0.00 0.00 38 1011.6
20260507180631 71 329 1.0 6.0 0.00 0.00 0.00 39 1011.6
20260507180553 71 329 1.0 6.0 0.00 0.00 0.00 37 1011.7
20260507180430 70 329 1.0 6.0 0.00 0.00 0.00 36 1011.6
20260507180335 70 329 1.0 6.0 0.00 0.00 0.00 36 1011.7
20260507180231 70 329 2.0 6.0 0.00 0.00 0.00 36 1011.7
20260507180138 70 329 2.0 6.0 0.00 0.00 0.00 36 1011.6
20260507175942 70 31 4.0 6.0 0.00 0.00 0.00 38 1011.7
20260507175829 70 36 4.0 7.0 0.00 0.00 0.00 37 1011.7
20260507175725 70 54 3.0 6.0 0.00 0.00 0.00 38 1011.7
20260507175620 70 49 3.0 6.0 0.00 0.00 0.00 39 1011.7
20260507175526 70 90 3.0 7.0 0.00 0.00 0.00 39 1011.7
20260507175424 70 79 3.0 7.0 0.00 0.00 0.00 39 1011.7
20260507175331 70 94 3.0 7.0 0.00 0.00 0.00 38 1011.7
20260507175254 70 67 2.0 7.0 0.00 0.00 0.00 38 1011.7
20260507175115 70 222 2.0 7.0 0.00 0.00 0.00 38 1011.8
20260507175041 70 222 2.0 7.0 0.00 0.00 0.00 38 1011.8
20260507174918 70 222 2.0 7.0 0.00 0.00 0.00 39 1011.8
20260507174816 70 224 4.0 7.0 0.00 0.00 0.00 38 1011.8
20260507174723 70 224 5.0 7.0 0.00 0.00 0.00 39 1011.8
20260507174618 70 224 5.0 7.0 0.00 0.00 0.00 39 1011.8
20260507174524 69 184 4.0 6.0 0.00 0.00 0.00 39 1011.9
20260507174425 70 179 5.0 6.0 0.00 0.00 0.00 38 1011.9
20260507174332 70 184 4.0 7.0 0.00 0.00 0.00 39 1011.9
20260507174230 70 188 3.0 6.0 0.00 0.00 0.00 38 1011.9
20260507174139 70 196 4.0 6.0 0.00 0.00 0.00 38 1011.9
20260507174054 70 183 4.0 7.0 0.00 0.00 0.00 38 1011.9
20260507173940 70 184 4.0 7.0 0.00 0.00 0.00 39 1011.9
20260507173820 70 179 4.0 7.0 0.00 0.00 0.00 39 1011.9
20260507173720 70 175 3.0 7.0 0.00 0.00 0.00 40 1011.9
20260507173623 70 124 2.0 7.0 0.00 0.00 0.00 41 1011.9
20260507173520 70 136 2.0 7.0 0.00 0.00 0.00 41 1011.9
20260507173426 70 138 3.0 7.0 0.00 0.00 0.00 41 1011.9
20260507173324 69 138 4.0 10.0 0.00 0.00 0.00 42 1011.9
20260507173230 69 160 3.0 10.0 0.00 0.00 0.00 42 1011.9
20260507173133 69 21 3.0 10.0 0.00 0.00 0.00 42 1012.0
20260507173037 69 21 3.0 10.0 0.00 0.00 0.00 42 1012.0
20260507172914 69 116 2.0 10.0 0.00 0.00 0.00 43 1012.0
20260507172832 69 118 2.0 10.0 0.00 0.00 0.00 41 1012.0
20260507172740 69 118 2.0 10.0 0.00 0.00 0.00 42 1012.0
20260507172615 69 112 4.0 10.0 0.00 0.00 0.00 41 1012.0
20260507172516 69 52 5.0 10.0 0.00 0.00 0.00 42 1011.9
20260507172423 69 25 4.0 10.0 0.00 0.00 0.00 42 1012.0
20260507172320 69 88 3.0 9.0 0.00 0.00 0.00 43 1012.0
20260507172219 68 84 3.0 9.0 0.00 0.00 0.00 43 1012.0
20260507172125 68 98 3.0 9.0 0.00 0.00 0.00 42 1012.0
20260507172020 68 84 4.0 9.0 0.00 0.00 0.00 43 1012.0
20260507171926 68 48 4.0 9.0 0.00 0.00 0.00 43 1012.0
20260507171828 68 145 4.0 7.0 0.00 0.00 0.00 43 1012.0
20260507171735 68 55 3.0 6.0 0.00 0.00 0.00 43 1012.0
20260507171653 68 72 2.0 6.0 0.00 0.00 0.00 43 1011.9
20260507171536 68 86 1.0 6.0 0.00 0.00 0.00 42 1011.9
20260507171414 68 47 2.0 6.0 0.00 0.00 0.00 43 1012.0
20260507171340 68 47 3.0 6.0 0.00 0.00 0.00 43 1012.0
20260507171221 68 42 3.0 6.0 0.00 0.00 0.00 44 1012.0
20260507171117 67 39 3.0 6.0 0.00 0.00 0.00 43 1012.0
20260507171015 67 88 3.0 7.0 0.00 0.00 0.00 44 1012.0
20260507170921 67 78 2.0 8.0 0.00 0.00 0.00 43 1012.0
20260507170817 67 5 2.0 8.0 0.00 0.00 0.00 42 1012.0
20260507170725 67 20 2.0 8.0 0.00 0.00 0.00 42 1012.0
20260507170619 67 15 1.0 8.0 0.00 0.00 0.00 42 1011.9
20260507170548 67 15 1.0 8.0 0.00 0.00 0.00 42 1011.9
20260507170422 67 15 2.0 8.0 0.00 0.00 0.00 43 1012.1
20260507170328 67 15 4.0 8.0 0.00 0.00 0.00 44 1012.1
20260507170225 67 15 4.0 8.0 0.00 0.00 0.00 44 1012.1